[{"header": {"dx": 0.06612293990616946, "dy": 0.0552356325346848, "nx": 98, "ny": 59, "la1": 35.046912555036876, "la2": 31.78801023549047, "lo1": -121.43107172385933, "lo2": -114.95102361305473, "refTime": "2026041308", "parameterCategory": 1, "parameterNumber": 2}, "data": [8.77, 8.77, 8.77, 8.77, 8.77, 8.77, 8.64, 8.64, 8.17, 8.17, 7.74, 7.4, 5.59, 3.51, 2.24, 2.24, 2.24, 2.24, 5.2, 3.79, 2.4, 1.14, 1.83, 2.21, 3.2, 3.83, 2.68, 0.87, -0.0, 0.45, -0.89, -2.68, -3.95, -4.38, -4.38, -4.15, -3.58, -2.68, -2.41, -2.84, -3.22, -2.23, -0.95, 0.45, 1.79, 2.24, 2.54, 2.6, 2.54, 2.24, 3.13, 3.13, 3.51, 4.66, 5.34, 5.75, 6.28, 6.51, 6.55, 6.66, 6.66, 6.66, 6.71, 6.26, 5.31, 5.09, 5.16, 5.86, 6.28, 6.28, 5.59, 4.66, 4.66, 5.59, 7.28, 9.54, 10.02, 10.19, 11.18, 8.94, 1.79, -0.6, -0.71, 0.0, 0.0, 0.0, 0.0, 0.73, 1.33, 3.72, 5.77, 5.43, 4.84, 3.58, 3.95, 4.8, 5.43, 4.84, 8.77, 8.77, 8.79, 8.77, 8.77, 8.77, 8.64, 8.64, 8.21, 8.17, 7.69, 7.42, 5.31, 3.97, 4.92, 4.47, 2.24, 2.24, 3.72, 2.53, 1.14, 1.14, 3.49, 2.21, 3.6, 3.22, 1.8, 0.85, -0.0, -0.63, -0.0, 0.45, -0.89, -2.97, -3.47, -2.98, -2.53, -1.8, -0.87, -1.0, -0.89, 0.45, 0.0, 0.89, 2.12, 3.04, 2.24, 1.79, 1.79, 2.12, 3.04, 3.2, 4.66, 5.34, 5.44, 5.86, 6.51, 6.98, 7.11, 7.11, 6.66, 6.21, 4.85, 3.95, 3.04, 3.51, 4.85, 5.16, 6.07, 6.51, 6.07, 3.95, 3.07, 5.75, 7.45, 9.58, 10.93, 10.19, 11.18, 8.94, 1.79, -0.6, -0.71, 0.0, 0.0, 0.0, 0.0, 0.73, 1.33, 3.72, 5.77, 5.43, 4.84, 3.58, 3.95, 4.8, 5.43, 4.84, 8.79, 8.79, 8.79, 8.77, 8.77, 8.77, 8.77, 8.64, 8.21, 8.17, 7.74, 7.4, 5.75, 4.47, 3.13, 2.24, 2.24, 2.12, 3.16, 1.3, 0.76, 2.4, 4.11, 4.65, 4.11, 2.68, 1.74, -0.0, 0.45, -0.63, -0.0, -0.0, 1.0, 0.89, 0.0, 0.0, 0.0, 0.0, 0.0, 0.63, 0.89, 2.0, 2.97, 2.6, 2.8, 3.6, 3.6, 2.86, 3.22, 3.83, 3.84, 4.84, 5.34, 5.75, 5.44, 5.59, 6.21, 7.11, 7.55, 6.98, 5.59, 4.38, 3.04, 2.6, 2.12, 3.04, 4.41, 5.16, 6.28, 6.94, 6.94, 6.07, 4.41, 4.87, 6.66, 9.26, 11.52, 11.96, 12.07, 8.94, 1.79, -0.6, -0.76, -0.73, -0.76, 0.0, 0.0, 0.0, 1.41, 3.9, 4.74, 3.16, 2.12, 2.68, 3.74, 4.4, 5.05, 4.46, 9.23, 9.23, 9.23, 8.77, 8.77, 8.77, 8.77, 8.77, 8.33, 8.17, 7.74, 7.26, 6.07, 4.41, 3.58, 2.24, 2.24, 2.12, 1.8, 0.81, 0.88, 2.84, 3.72, 4.6, 4.11, 3.76, 2.53, 0.45, 0.45, -1.6, -1.74, -0.0, 0.79, 2.48, 3.39, 2.68, 2.21, 1.6, 1.2, 1.79, 2.6, 3.22, 3.22, 3.2, 3.6, 3.22, 3.16, 3.07, 4.11, 4.81, 5.46, 5.82, 5.43, 5.34, 5.16, 5.75, 6.21, 7.11, 6.98, 6.07, 4.15, 2.6, 2.21, 2.6, 3.83, 4.22, 4.09, 5.36, 6.35, 7.96, 8.94, 8.63, 7.21, 6.22, 6.26, 8.49, 10.73, 12.52, 12.96, 7.6, 1.2, -0.71, -0.61, -0.73, -1.41, -1.49, 0.0, 0.0, 1.47, 2.98, 2.23, 1.79, 2.24, 2.17, 2.23, 3.84, 4.46, 4.46, 9.23, 9.11, 9.11, 8.64, 8.77, 8.77, 8.77, 8.77, 8.33, 8.3, 7.87, 7.4, 6.07, 4.38, 4.02, 3.58, 3.13, 2.6, 0.76, 0.79, 1.41, 3.16, 3.72, 3.72, 3.48, 4.65, 4.09, 2.68, 0.89, -1.26, -2.21, -1.74, -0.0, 3.22, 6.14, 5.36, 4.92, 4.24, 1.58, -0.0, 1.8, 2.53, 3.79, 4.19, 3.83, 2.86, 2.41, 3.35, 4.43, 5.43, 5.46, 5.82, 5.34, 5.09, 5.31, 5.77, 6.65, 6.98, 7.21, 5.59, 3.2, 1.74, 2.41, 2.98, 4.03, 5.49, 5.21, 5.21, 6.42, 8.46, 10.86, 11.9, 10.35, 8.95, 8.36, 8.49, 8.8, 8.82, 5.36, 4.47, 0.0, -1.4, -0.7, -1.33, -2.3, -1.49, 0.0, 0.66, 1.16, 1.7, 1.86, 1.9, 2.23, 1.58, 1.88, 3.79, 6.0, 5.34, 9.11, 9.11, 9.11, 9.11, 8.64, 8.64, 8.64, 8.77, 8.33, 8.3, 7.87, 7.4, 5.77, 4.38, 3.58, 3.13, 3.13, 2.6, 0.85, -0.0, 0.99, 2.41, 3.79, 4.11, 3.79, 4.09, 4.8, 4.24, 1.9, -0.0, -1.0, -0.95, 0.45, 3.13, 5.81, 6.71, 6.71, 5.36, 1.79, -1.9, -0.88, 2.16, 4.16, 5.43, 4.81, 4.19, 3.16, 3.16, 4.54, 5.46, 5.46, 5.43, 5.34, 5.09, 5.75, 6.51, 6.98, 7.71, 7.71, 5.75, 2.21, 1.6, 2.47, 3.15, 3.95, 6.33, 6.97, 6.42, 6.14, 8.53, 10.9, 12.52, 12.52, 11.88, 11.34, 10.75, 7.15, 2.6, 0.45, 0.45, -1.88, -2.0, -1.33, -1.88, -2.53, -1.49, 0.0, 0.0, 0.45, -0.0, 0.65, 2.15, 1.88, 1.4, 2.15, 4.84, 6.0, 4.4, 9.57, 9.54, 9.11, 9.11, 9.11, 8.64, 8.64, 8.64, 8.33, 8.3, 7.87, 7.4, 6.21, 4.85, 5.26, 2.24, 2.68, 1.6, 0.6, -0.0, -0.0, -0.0, 2.98, 4.22, 5.2, 4.8, 4.4, 3.72, 2.48, 1.8, 1.2, 0.89, 1.34, 3.47, 5.31, 5.81, 6.21, 6.61, 3.13, -0.85, -2.23, -0.0, 2.6, 4.47, 5.69, 5.37, 5.43, 3.84, 3.22, 5.37, 6.4, 5.75, 5.75, 5.59, 6.21, 6.51, 7.21, 7.42, 6.65, 4.15, 1.6, 0.76, 0.8, 2.21, 3.85, 6.33, 8.01, 6.88, 6.01, 8.06, 10.23, 11.75, 12.13, 12.7, 12.8, 12.14, 8.36, 1.34, -0.89, -1.26, -2.15, -2.73, -2.53, -2.8, -2.4, -1.58, -0.95, -0.89, -0.57, -0.0, -0.0, 1.27, 1.55, 2.11, 4.43, 6.28, 5.16, 2.91, 9.57, 9.57, 9.57, 9.11, 9.11, 9.11, 8.67, 8.64, 8.21, 8.3, 7.87, 7.4, 6.2, 4.85, 5.7, 3.58, 2.24, 1.7, 0.6, -0.0, -0.0, 0.0, 0.0, 1.2, 3.47, 4.92, 3.82, 2.53, 2.48, 3.72, 3.82, 2.68, 3.13, 4.02, 4.47, 4.47, 4.92, 5.81, 4.77, -0.0, -1.4, -1.2, 1.13, 3.79, 4.74, 5.69, 6.32, 6.08, 4.84, 5.37, 3.83, 4.66, 5.77, 6.21, 6.21, 6.51, 7.42, 7.11, 5.36, 2.54, 0.88, -0.0, 0.77, 2.28, 3.88, 6.05, 8.53, 8.3, 7.03, 7.71, 9.72, 10.62, 11.6, 12.52, 12.07, 11.15, 9.83, 3.13, 0.45, 0.0, 0.0, -2.21, -2.6, -2.24, -2.24, -1.7, -1.26, -1.24, -0.65, -0.0, -0.0, -0.0, 1.47, 4.56, 6.7, 7.47, 3.97, 2.17, 9.57, 9.57, 9.57, 9.57, 9.11, 9.11, 9.23, 8.79, 8.77, 8.3, 8.3, 7.4, 6.61, 5.29, 4.85, 4.02, 3.13, 2.24, 1.2, 1.6, 1.79, 0.0, 0.0, 0.0, 1.49, 3.82, 2.68, 1.58, 3.2, 4.77, 4.02, 2.68, 3.13, 4.02, 3.95, 4.02, 3.58, 3.58, 3.58, 1.0, -0.0, -0.0, -0.0, 1.6, 3.79, 4.43, 5.69, 7.21, 6.39, 6.08, 6.32, 5.16, 5.36, 5.36, 5.36, 6.65, 7.6, 6.71, 4.02, 0.85, -0.0, -0.0, 0.8, 2.31, 3.27, 5.49, 8.65, 10.23, 9.11, 8.94, 9.39, 10.19, 11.4, 11.75, 11.09, 9.83, 8.19, 4.47, 2.24, 1.34, 2.17, 0.89, 1.2, -0.0, -0.95, -1.49, -1.2, -1.4, -1.33, -0.73, -0.0, 0.63, 1.41, 4.43, 7.85, 8.4, 3.97, 2.17, 9.57, 10.01, 9.57, 9.57, 9.57, 9.11, 9.23, 9.23, 8.79, 8.77, 8.77, 8.17, 7.74, 7.4, 6.21, 4.85, 3.58, 2.68, 3.58, 3.58, 4.02, 3.58, 1.9, 0.0, 1.4, 3.58, 2.68, 2.24, 3.2, 4.77, 3.39, 0.45, 0.45, 0.89, 2.68, 4.92, 4.02, 1.79, 1.26, 1.2, -0.0, -0.0, 0.85, 1.0, 2.84, 3.48, 4.84, 6.44, 7.41, 7.06, 7.06, 6.7, 6.28, 4.85, 4.92, 6.71, 6.98, 4.19, 1.34, -0.0, -0.0, 0.78, 1.16, 2.4, 3.09, 5.3, 8.67, 10.94, 9.28, 8.36, 8.82, 9.68, 10.79, 10.79, 10.38, 8.67, 5.05, 2.4, 1.34, 1.49, 2.5, 4.09, 5.44, 4.73, 1.26, -0.99, -1.88, -2.07, -2.07, -1.27, -0.0, 1.27, 2.15, 3.45, 7.45, 7.92, 4.73, 2.5, 10.01, 10.01, 10.01, 9.57, 9.57, 9.68, 9.23, 9.23, 9.23, 9.23, 8.79, 8.77, 8.64, 8.17, 6.94, 4.87, 4.02, 5.78, 6.71, 6.71, 5.81, 4.92, 4.02, 3.58, 4.47, 3.58, 4.02, 3.58, 3.58, 4.47, 3.82, 0.89, 0.0, 0.45, 1.2, 4.77, 4.47, 2.24, 1.9, 2.21, 1.74, 0.71, 1.0, 2.53, 2.84, 3.2, 4.22, 5.2, 6.4, 6.44, 6.64, 7.82, 7.52, 6.39, 5.75, 6.21, 4.47, 0.0, -2.68, -1.55, -0.0, 0.75, 0.76, 1.45, 3.8, 6.05, 8.9, 10.9, 8.82, 5.05, 5.3, 7.33, 9.05, 8.11, 6.9, 4.4, 0.95, 0.0, 0.45, 1.26, 2.5, 4.73, 6.9, 8.25, 7.06, 1.86, -0.54, -1.84, -2.11, -1.33, -0.0, 1.88, 2.91, 4.02, 6.26, 5.81, 3.45, 2.51, 10.01, 10.01, 10.01, 9.57, 9.57, 9.68, 9.68, 9.23, 9.23, 9.23, 9.23, 9.23, 8.79, 8.77, 8.3, 7.97, 7.52, 7.58, 8.03, 7.58, 7.58, 7.13, 6.23, 6.61, 5.81, 5.81, 5.81, 4.47, 2.68, 2.24, 2.24, 1.34, 0.45, 0.95, 2.23, 3.32, 3.58, 2.23, 1.58, 1.74, 1.4, 1.74, 1.49, 2.84, 2.53, 2.23, 4.09, 4.65, 4.43, 4.47, 4.83, 6.87, 8.56, 8.01, 5.69, 3.0, 2.44, 1.4, -0.57, -1.55, -0.0, 1.52, 1.45, 0.76, 2.28, 5.48, 8.5, 10.15, 8.29, 2.21, 0.0, 2.06, 5.38, 5.05, 1.86, 0.0, -0.45, 0.0, 1.2, 2.23, 2.5, 5.09, 8.24, 8.8, 10.79, 8.76, 1.58, -1.88, -2.0, -0.61, -0.0, 1.7, 2.68, 3.74, 3.82, 3.07, 1.84, 1.41, 9.86, 9.86, 10.01, 9.57, 9.57, 9.57, 9.68, 9.68, 9.68, 9.68, 9.23, 9.23, 8.79, 8.87, 8.86, 8.86, 8.47, 8.47, 8.47, 8.47, 8.03, 8.03, 7.97, 7.51, 7.06, 6.6, 6.23, 5.78, 5.33, 4.77, 2.6, 1.7, 1.6, 2.6, 1.86, 2.12, 2.24, 2.54, 1.26, 1.58, 1.58, 2.6, 1.9, 1.6, 0.95, 1.4, 2.48, 3.49, 3.45, 3.68, 3.91, 5.38, 6.88, 7.22, 3.45, -0.0, 2.18, 8.68, 5.38, -0.0, -0.0, 2.25, 1.63, 0.78, 0.76, 3.07, 6.42, 7.91, 7.8, 8.51, 3.9, 0.0, 0.79, 1.86, 1.6, 0.0, 0.0, 1.2, 3.45, 5.05, 5.09, 6.08, 9.05, 11.09, 11.34, 12.7, 6.94, -0.71, -1.88, -0.0, 1.2, 2.12, 1.9, 1.9, 2.24, 1.2, 0.66, 0.76, 9.39, 9.43, 9.43, 9.57, 9.57, 9.57, 9.57, 9.68, 9.68, 9.68, 9.68, 9.23, 8.79, 8.87, 8.87, 8.92, 8.92, 8.92, 8.92, 8.92, 8.47, 8.47, 8.47, 7.97, 7.97, 7.51, 7.06, 6.61, 6.16, 5.7, 5.09, 4.15, 4.24, 2.6, 2.97, 2.97, 2.68, 2.68, 1.34, 1.34, 1.34, 1.79, 2.68, 3.58, 2.8, 1.9, 1.0, 2.84, 2.98, 3.49, 4.74, 5.06, 5.93, 4.46, -0.0, -1.43, 2.28, 7.68, 7.95, 1.5, -0.0, 2.23, 2.17, -0.0, -0.0, 2.37, 3.73, 4.39, 6.4, 9.54, 13.2, 7.97, 0.6, 0.0, 0.57, 0.89, 1.7, 3.84, 6.44, 7.69, 7.69, 8.95, 10.1, 11.09, 11.06, 14.17, 11.88, 1.9, -1.86, -0.0, 1.34, 1.58, 1.26, 0.89, 0.57, -0.0, -0.0, 0.7, 9.39, 9.39, 9.39, 9.39, 9.54, 9.57, 9.57, 9.57, 9.57, 9.68, 9.68, 9.23, 8.87, 8.87, 8.92, 8.92, 9.37, 9.37, 9.37, 9.37, 8.92, 8.47, 8.47, 8.47, 8.47, 8.03, 7.58, 7.58, 7.13, 7.06, 6.6, 5.7, 5.7, 4.47, 4.02, 4.02, 4.02, 2.68, 3.58, 2.68, 1.79, 3.58, 4.02, 3.58, 3.13, 2.68, 1.9, 2.4, 3.2, 2.84, 4.8, 5.01, 5.01, 3.22, -0.0, -1.14, 2.6, 5.64, 5.41, 2.33, 0.77, 1.07, -0.0, -1.09, -0.0, 2.33, 3.39, 4.6, 6.01, 7.59, 10.24, 15.13, 9.33, 0.0, 0.0, 1.26, 5.43, 7.68, 9.3, 10.29, 10.48, 10.52, 10.37, 10.05, 7.6, 11.66, 12.14, 6.64, -0.0, -0.63, 0.0, 0.6, -0.0, -0.0, -0.0, -0.0, 0.66, 0.66, 9.39, 9.39, 9.39, 9.39, 9.39, 9.54, 9.54, 9.57, 9.57, 9.68, 9.23, 9.23, 8.87, 8.87, 8.92, 9.37, 9.37, 9.82, 9.82, 9.37, 8.92, 8.92, 8.92, 8.92, 8.92, 8.47, 8.47, 8.03, 8.03, 8.03, 7.58, 7.58, 6.68, 6.26, 4.92, 2.68, 2.68, 3.13, 4.02, 4.02, 3.58, 1.79, 4.02, 3.58, 3.58, 3.58, 3.13, 3.13, 3.13, 3.58, 4.92, 5.7, 5.37, 4.43, 1.19, -0.0, -0.0, 1.1, 3.35, 3.2, 1.55, 1.3, -2.12, -3.6, -1.1, 1.18, 3.09, 5.72, 6.32, 7.21, 8.63, 13.15, 15.41, 6.66, 1.86, 3.69, 8.46, 10.9, 10.91, 11.12, 12.39, 12.14, 10.45, 7.11, 4.41, 3.83, 7.56, 6.07, 1.6, 0.45, 0.0, -0.7, -0.0, 0.73, 0.7, -0.0, 0.61, 0.61, 9.54, 9.54, 9.54, 9.11, 9.11, 9.11, 9.54, 9.54, 9.54, 9.23, 9.23, 9.23, 8.87, 8.87, 8.92, 9.37, 9.82, 9.82, 9.82, 9.37, 9.37, 8.92, 8.92, 9.39, 8.94, 8.94, 8.94, 8.49, 8.05, 8.05, 8.05, 8.05, 7.6, 7.6, 4.02, 3.58, 4.02, 4.47, 4.02, 4.47, 4.02, 1.79, 4.02, 1.79, 4.47, 4.02, 4.02, 4.02, 4.02, 4.47, 4.92, 5.81, 6.36, 5.59, 3.45, -0.0, -0.0, -0.0, 2.53, 4.24, 3.72, -0.0, -2.4, -4.11, -2.48, -0.0, 1.41, 3.68, 6.64, 8.0, 10.79, 12.33, 14.11, 10.68, 6.88, 7.12, 11.06, 13.46, 13.89, 12.47, 12.47, 12.94, 10.43, 3.32, 0.63, 0.0, 2.8, 1.34, 0.63, 1.2, 0.71, -0.65, -0.61, 0.59, 1.49, 0.61, 0.61, 0.61, 9.57, 9.57, 9.54, 9.54, 9.54, 9.54, 9.11, 9.11, 9.11, 9.11, 9.23, 8.79, 8.87, 8.87, 9.37, 9.37, 9.37, 9.82, 9.83, 9.39, 9.39, 9.39, 9.39, 9.39, 8.94, 8.94, 8.49, 8.05, 8.05, 8.05, 8.05, 8.05, 8.05, 7.6, 6.71, 5.36, 4.92, 5.36, 4.92, 4.02, 3.13, 1.79, 1.79, 2.24, 4.92, 4.47, 4.47, 4.47, 4.92, 5.36, 5.81, 5.81, 6.17, 5.37, 2.32, -0.0, -0.0, -0.0, 2.24, 3.13, 2.53, -0.0, -1.19, -2.48, -2.84, -0.99, -0.0, 2.6, 6.28, 8.8, 12.08, 13.96, 14.87, 10.4, 6.64, 6.88, 11.25, 14.74, 15.47, 13.49, 12.47, 12.39, 11.34, 0.0, -1.24, -0.71, -0.6, 0.0, -0.0, 1.2, 1.88, 0.65, -0.54, -0.0, 0.73, 1.33, 1.41, 1.41, 9.43, 9.57, 9.57, 9.57, 9.54, 9.54, 9.54, 9.11, 9.11, 9.11, 9.23, 8.79, 8.86, 8.87, 8.87, 8.46, 8.92, 9.37, 9.39, 9.39, 9.39, 8.94, 8.94, 7.6, 6.71, 6.71, 6.71, 6.26, 6.26, 7.6, 8.05, 8.49, 8.49, 8.05, 7.6, 7.13, 7.13, 7.13, 6.71, 5.36, 4.47, 3.58, 4.02, 5.81, 5.36, 5.36, 4.92, 4.92, 5.36, 5.81, 5.81, 6.17, 6.36, 5.75, 2.12, 1.1, 1.14, 1.41, 2.84, 2.84, 1.27, -0.0, -1.19, -1.8, -1.8, -0.79, -0.0, 2.95, 5.75, 8.67, 11.84, 14.87, 16.96, 13.49, 9.08, 6.98, 9.81, 12.74, 14.21, 13.99, 11.45, 11.45, 9.08, 3.07, 0.0, -0.57, -0.6, 0.45, -0.63, -0.0, 1.88, 2.21, -0.0, -0.61, 0.66, 1.41, 1.33, 1.33, 9.43, 9.43, 9.43, 9.43, 9.57, 9.57, 9.54, 9.54, 9.54, 9.23, 9.23, 8.79, 8.77, 9.23, 9.23, 9.32, 9.32, 8.92, 8.05, 7.15, 7.15, 8.05, 8.49, 7.6, 7.15, 6.26, 6.26, 7.6, 8.03, 8.47, 8.47, 8.47, 8.47, 8.49, 8.05, 8.05, 8.03, 8.03, 8.05, 8.05, 7.6, 7.6, 7.15, 7.15, 6.26, 6.26, 5.36, 5.36, 5.36, 5.81, 6.26, 6.17, 6.36, 4.47, 2.29, 1.7, 2.32, 1.49, 1.6, 2.48, -0.0, -1.08, -1.19, -1.3, -0.88, -0.79, -0.0, 3.48, 6.07, 8.45, 11.15, 14.67, 16.91, 15.18, 12.52, 10.02, 8.63, 9.2, 11.15, 11.15, 10.93, 10.52, 10.15, 9.08, 5.59, 1.7, 0.0, 0.45, -0.89, -0.45, 0.89, 2.15, -0.0, -1.16, -0.0, 1.49, 2.07, 2.07, 9.7, 9.86, 9.43, 9.43, 9.43, 9.43, 9.57, 9.54, 9.54, 9.23, 9.23, 9.23, 9.23, 9.23, 9.23, 9.23, 9.32, 9.32, 8.92, 8.05, 7.6, 8.05, 8.94, 9.39, 9.39, 9.39, 9.39, 8.92, 9.37, 9.37, 9.37, 9.37, 9.39, 8.94, 8.94, 8.49, 8.49, 8.49, 8.94, 8.94, 8.94, 8.49, 8.05, 8.05, 7.6, 7.6, 6.26, 6.26, 5.81, 6.26, 6.26, 6.61, 5.59, 4.22, 3.4, 2.4, 2.53, 2.79, 3.48, 1.27, -1.41, -1.19, -1.19, -1.19, -0.79, -0.85, -0.0, 3.16, 6.4, 8.14, 10.16, 13.96, 15.47, 11.96, 9.49, 8.67, 6.81, 7.18, 7.06, 7.28, 8.8, 9.9, 11.9, 12.59, 12.47, 7.98, 2.6, 1.7, 0.45, -1.2, -0.63, 0.95, -0.0, -1.2, -0.65, 0.61, 1.84, 1.84, 9.7, 9.7, 9.7, 9.43, 9.43, 9.43, 9.43, 9.54, 9.54, 9.23, 9.23, 9.23, 9.23, 9.11, 9.23, 9.23, 9.23, 9.32, 9.32, 9.82, 9.83, 9.39, 9.83, 9.83, 10.28, 10.28, 10.28, 10.28, 9.83, 9.83, 9.83, 9.83, 9.83, 9.39, 9.39, 8.94, 8.94, 9.39, 9.39, 9.39, 9.39, 8.94, 8.49, 8.49, 8.05, 7.6, 8.05, 6.71, 6.26, 6.26, 6.61, 6.4, 5.37, 4.22, 3.4, 4.22, 4.01, 4.01, 2.73, -1.4, -2.41, -1.49, -0.73, -0.88, -0.79, -0.0, -0.0, 1.8, 4.01, 5.72, 7.27, 12.29, 13.51, 3.13, 1.49, 2.8, 3.44, 3.37, 2.75, 1.88, 3.32, 8.3, 12.16, 14.49, 14.7, 12.72, 8.88, 5.6, 2.91, -1.49, -1.86, 0.45, -0.0, -1.0, -1.24, -0.0, 1.2, 1.2, 9.51, 9.51, 9.7, 9.7, 9.43, 9.43, 9.43, 9.54, 9.54, 9.57, 9.68, 9.68, 9.68, 9.68, 9.68, 9.23, 9.23, 9.32, 9.37, 9.82, 9.83, 9.83, 9.83, 10.28, 10.28, 10.73, 10.71, 10.71, 10.28, 10.28, 10.28, 10.28, 9.83, 9.82, 9.37, 9.37, 9.37, 9.37, 9.39, 9.39, 9.39, 9.39, 8.94, 8.49, 8.49, 8.05, 8.49, 7.15, 6.71, 6.71, 6.79, 6.7, 5.69, 4.75, 4.75, 4.75, 4.16, 4.83, 2.4, -0.8, -2.6, -1.66, -0.0, -0.0, -0.0, -0.0, 0.76, 0.87, 1.83, 3.2, 5.72, 9.17, 5.46, -4.8, -4.4, 0.0, 0.72, 0.69, 0.0, -0.65, 0.63, 5.43, 10.52, 13.07, 13.64, 12.79, 10.87, 9.2, 8.14, 3.45, -2.91, -2.12, -1.2, -1.24, -1.24, -0.0, 0.65, 0.65, 9.51, 9.51, 9.51, 9.7, 9.21, 9.43, 9.43, 9.57, 9.57, 9.57, 9.57, 9.57, 9.68, 9.68, 9.68, 9.68, 9.23, 9.32, 9.37, 9.82, 9.83, 10.28, 10.28, 10.28, 10.28, 10.71, 10.71, 10.67, 10.71, 10.71, 10.71, 10.27, 9.82, 9.82, 9.32, 9.77, 9.82, 9.82, 9.82, 9.82, 9.82, 9.37, 9.37, 8.92, 8.49, 8.49, 8.94, 8.05, 7.6, 7.74, 8.22, 7.76, 5.69, 4.75, 4.47, 4.75, 3.9, 4.46, 4.75, 1.6, -1.0, -1.66, -0.0, -0.0, -0.0, 0.79, 1.8, 1.41, 0.87, 1.8, 4.8, 15.3, 15.61, 2.6, -5.2, -3.72, 0.0, 0.0, -2.12, -2.07, 0.0, 3.32, 8.46, 10.28, 10.7, 10.49, 9.83, 8.55, 7.67, 8.65, -0.89, -3.07, -3.51, -2.4, -1.24, -0.0, -0.0, -0.0, 9.51, 9.51, 9.51, 9.63, 9.21, 9.39, 9.43, 9.57, 9.57, 9.57, 10.01, 10.01, 10.13, 10.14, 10.13, 9.77, 9.32, 9.37, 9.37, 9.83, 9.83, 10.28, 10.28, 10.28, 10.27, 10.71, 10.67, 10.67, 11.11, 11.11, 10.71, 10.71, 9.82, 9.82, 9.37, 9.82, 9.82, 9.82, 9.82, 9.82, 9.32, 9.32, 9.32, 9.32, 8.92, 8.94, 8.94, 8.92, 8.86, 9.11, 9.01, 8.72, 6.52, 5.69, 5.37, 4.75, 3.2, 3.11, 4.46, 4.75, 2.2, -0.0, -0.0, 0.87, 0.79, 0.79, 1.66, 1.66, 2.68, 5.36, 8.49, 12.04, 17.49, 13.89, 2.4, -2.23, -1.2, 0.0, -1.05, -2.07, 0.0, 2.66, 5.95, 7.56, 7.89, 8.05, 8.36, 6.64, 5.77, 6.92, 10.75, 0.95, -2.91, -4.47, -2.15, -0.0, -0.0, -0.0, 9.51, 9.51, 9.42, 9.21, 9.21, 9.39, 9.39, 9.43, 10.01, 10.01, 10.01, 10.04, 10.14, 10.14, 10.21, 9.77, 9.82, 9.37, 9.39, 9.83, 9.83, 10.28, 10.28, 10.28, 10.27, 10.71, 10.67, 10.67, 11.11, 11.12, 11.11, 10.71, 10.27, 9.82, 9.37, 9.82, 9.82, 9.82, 9.77, 9.32, 9.32, 9.32, 9.77, 9.77, 9.82, 9.37, 9.37, 8.87, 9.23, 9.21, 9.2, 8.37, 7.81, 6.64, 6.32, 5.69, 4.47, 3.45, 3.45, 4.46, 4.46, 3.76, 1.6, 0.87, 0.79, 0.88, 1.66, 2.53, 5.82, 6.7, 8.33, 11.4, 13.07, 17.5, 15.43, 2.91, -1.4, -0.65, -0.65, -1.33, -0.72, 0.72, 2.88, 3.48, 3.39, 5.31, 7.28, 7.02, 5.94, 6.28, 9.23, 13.28, 5.44, -1.2, -2.6, -0.61, 0.59, 0.59, 9.51, 9.51, 9.42, 9.21, 9.21, 9.21, 9.43, 9.86, 9.86, 10.01, 10.04, 10.04, 10.14, 10.14, 10.22, 9.77, 9.82, 9.83, 9.83, 9.83, 10.28, 10.28, 10.28, 10.28, 10.27, 10.27, 10.71, 10.67, 11.11, 11.12, 11.12, 11.16, 10.27, 9.82, 9.82, 9.82, 9.37, 9.37, 9.37, 8.92, 8.92, 8.92, 9.37, 9.77, 10.21, 9.77, 9.32, 9.23, 9.39, 9.42, 8.82, 8.08, 7.55, 6.95, 6.32, 4.95, 4.75, 3.45, 2.3, 3.22, 5.69, 5.37, 3.49, 1.66, 1.3, 0.88, 1.66, 3.84, 5.46, 7.42, 8.55, 10.25, 12.58, 13.99, 16.63, 14.7, 2.68, -1.16, -1.2, -1.0, -0.61, 0.0, 0.61, 1.24, 2.24, 4.09, 7.02, 7.82, 7.82, 7.59, 8.58, 12.5, 16.63, 6.28, -0.63, -0.57, 0.65, 0.65, 9.7, 9.7, 9.7, 9.21, 9.21, 9.21, 9.7, 9.7, 9.86, 10.01, 10.04, 10.14, 10.14, 10.22, 10.22, 9.82, 9.82, 9.83, 9.83, 10.28, 10.28, 10.28, 10.28, 10.28, 10.28, 10.27, 10.71, 10.71, 11.16, 11.61, 11.61, 11.16, 10.71, 10.27, 9.83, 9.83, 9.39, 9.39, 8.92, 8.92, 8.92, 8.92, 9.37, 9.32, 9.23, 9.57, 9.57, 9.54, 9.21, 9.2, 8.55, 8.15, 7.59, 7.27, 6.95, 5.59, 5.44, 4.47, 3.07, 3.22, 5.06, 5.77, 4.01, 1.6, 0.88, 1.3, 2.41, 2.97, 3.95, 6.7, 9.33, 11.36, 11.52, 11.18, 11.84, 17.04, 15.84, 3.07, -1.2, -0.99, 0.0, 1.6, 3.58, 3.04, 4.4, 5.09, 6.01, 7.27, 9.27, 9.66, 9.3, 11.75, 17.27, 15.59, 8.14, 1.58, 1.24, 1.24, 10.12, 10.12, 9.7, 9.63, 9.21, 9.63, 9.7, 9.7, 9.86, 9.86, 10.04, 10.04, 10.14, 10.22, 10.22, 9.82, 9.83, 10.28, 10.28, 10.28, 10.73, 10.73, 10.28, 10.28, 10.28, 10.28, 10.71, 10.71, 11.16, 11.61, 11.61, 11.16, 10.71, 10.27, 9.83, 9.83, 9.39, 9.39, 8.94, 8.94, 8.49, 8.94, 8.92, 8.01, 7.45, 8.64, 9.11, 8.79, 8.68, 8.82, 8.44, 7.86, 7.59, 7.27, 7.27, 6.34, 6.64, 5.72, 4.01, 4.01, 5.06, 5.43, 3.11, 1.72, 1.7, 2.4, 3.22, 1.2, 0.57, 4.15, 8.05, 11.4, 11.86, 9.81, 9.2, 12.14, 17.36, 15.47, 4.92, 0.0, 0.0, 4.0, 7.2, 8.91, 7.73, 6.64, 5.72, 7.07, 9.6, 10.23, 10.4, 11.75, 13.7, 15.99, 13.45, 8.4, 3.45, 3.45, 9.7, 9.7, 9.7, 9.86, 9.7, 9.7, 9.7, 9.86, 9.86, 9.86, 9.86, 10.01, 10.14, 10.22, 10.22, 9.82, 10.27, 10.28, 10.73, 10.73, 10.73, 10.73, 10.71, 10.71, 10.71, 10.71, 10.73, 11.18, 11.16, 11.16, 11.16, 11.16, 11.16, 10.71, 10.28, 9.83, 9.39, 8.94, 8.94, 8.94, 8.49, 8.94, 8.94, 8.92, 8.86, 8.36, 7.28, 8.0, 8.55, 8.38, 8.19, 8.19, 8.19, 7.59, 7.59, 7.27, 6.64, 6.34, 4.83, 4.74, 5.06, 4.65, 3.11, 1.7, 0.88, 0.82, 3.27, 4.75, 1.7, 1.8, 4.57, 8.63, 13.75, 14.44, 8.55, 6.31, 9.27, 13.86, 14.29, 8.05, 2.68, 4.88, 8.12, 10.12, 10.6, 8.48, 7.56, 8.24, 9.46, 10.8, 11.09, 12.37, 14.13, 15.36, 13.86, 11.2, 7.46, 7.46, 9.86, 9.86, 9.86, 9.86, 9.86, 9.86, 10.34, 10.34, 10.34, 10.34, 10.34, 9.86, 9.68, 9.77, 9.77, 9.82, 10.27, 10.71, 10.73, 10.73, 10.28, 10.71, 10.71, 11.16, 11.16, 11.16, 11.18, 11.16, 11.16, 11.16, 11.16, 11.16, 10.71, 10.71, 10.28, 9.83, 9.39, 8.94, 8.94, 8.94, 8.49, 8.94, 8.94, 9.37, 8.87, 8.8, 8.4, 8.28, 8.55, 8.15, 8.15, 7.59, 7.59, 7.6, 7.6, 7.59, 6.97, 6.35, 6.01, 5.3, 4.65, 4.65, 3.47, 1.49, -0.0, -0.88, -0.0, 4.96, 6.87, 4.77, 2.68, 5.2, 11.5, 17.38, 11.52, 2.26, 2.35, 6.7, 11.06, 12.07, 6.71, 2.68, 5.78, 8.77, 10.91, 11.71, 11.84, 10.52, 10.19, 10.19, 10.63, 10.98, 12.18, 12.79, 13.7, 11.6, 8.49, 8.49, 9.86, 9.86, 9.86, 9.86, 9.91, 10.34, 10.34, 10.77, 10.81, 10.34, 10.34, 10.01, 9.57, 9.77, 9.82, 10.27, 10.27, 10.71, 10.73, 10.28, 10.27, 10.71, 11.16, 11.18, 11.18, 11.18, 11.16, 10.71, 10.28, 10.27, 10.27, 10.71, 10.71, 10.73, 10.28, 9.83, 8.94, 8.94, 8.94, 8.94, 8.94, 8.94, 8.94, 8.92, 9.23, 9.57, 9.51, 9.35, 8.65, 8.44, 7.55, 7.27, 7.59, 7.59, 7.6, 7.6, 6.98, 6.97, 6.35, 6.01, 5.59, 3.9, 2.3, 1.33, -0.0, -0.76, -0.99, 2.73, 6.87, 8.37, 5.82, 5.75, 9.11, 16.85, 15.61, 2.15, -2.31, 1.55, 6.44, 8.67, 6.71, 2.68, 2.24, 6.68, 10.13, 12.3, 13.19, 13.19, 10.7, 9.36, 8.46, 8.38, 9.15, 10.18, 12.5, 10.53, 8.4, 8.4, 9.91, 9.91, 9.91, 10.34, 10.34, 10.34, 10.81, 10.81, 10.81, 10.34, 10.04, 10.01, 9.68, 9.77, 10.27, 10.27, 10.71, 10.73, 10.28, 10.28, 10.28, 10.73, 11.18, 11.62, 11.62, 11.18, 11.16, 11.16, 10.71, 10.28, 10.28, 10.73, 10.73, 10.73, 10.28, 9.83, 8.94, 8.94, 8.94, 8.94, 8.94, 8.94, 8.92, 9.32, 9.54, 9.7, 9.71, 9.48, 9.01, 8.15, 7.88, 7.27, 6.97, 7.28, 7.59, 7.3, 6.98, 6.98, 6.64, 6.35, 5.72, 3.22, 3.22, 2.3, 1.49, 0.7, -0.0, 1.0, 5.2, 8.63, 8.0, 7.42, 8.49, 13.86, 18.96, 6.98, -1.4, 0.0, 2.66, 4.73, 3.51, 2.24, 1.79, 3.13, 8.86, 11.49, 12.73, 12.3, 9.26, 5.77, 4.66, 4.66, 5.86, 7.06, 8.67, 9.6, 7.46, 7.46, 10.34, 10.34, 10.34, 10.34, 10.77, 10.81, 10.81, 10.81, 10.81, 10.47, 10.04, 9.68, 9.77, 9.77, 10.27, 10.27, 10.71, 10.28, 10.28, 10.28, 10.28, 10.73, 11.18, 11.62, 11.62, 11.18, 11.16, 11.16, 11.16, 11.18, 11.18, 11.18, 11.18, 11.18, 10.73, 9.83, 9.39, 8.94, 8.94, 8.94, 8.94, 9.39, 9.32, 9.23, 9.57, 9.7, 8.96, 9.1, 8.73, 8.19, 7.59, 7.3, 6.98, 6.98, 7.28, 7.28, 7.28, 6.69, 6.69, 6.35, 5.72, 4.22, 3.45, 3.22, 2.53, 2.53, 2.68, 3.22, 4.8, 7.74, 8.14, 9.11, 9.39, 12.05, 16.07, 12.09, 2.24, 0.0, 0.7, 1.33, 0.95, 0.45, 1.34, 2.68, 5.36, 9.32, 10.13, 9.23, 4.73, 2.8, 1.24, 1.49, 3.45, 5.44, 7.06, 8.93, 7.85, 7.85, 10.34, 10.34, 10.34, 10.77, 10.81, 10.81, 10.81, 10.81, 10.34, 10.47, 10.14, 9.68, 10.21, 10.22, 10.22, 10.71, 10.71, 10.28, 10.28, 10.28, 10.73, 11.18, 11.18, 11.62, 11.62, 11.16, 11.16, 11.16, 11.16, 11.62, 11.62, 11.18, 11.18, 11.18, 10.73, 9.83, 9.39, 9.39, 9.39, 9.39, 9.39, 9.37, 9.32, 9.68, 9.43, 9.01, 9.07, 8.55, 8.65, 8.15, 7.3, 6.98, 6.98, 7.3, 7.3, 7.28, 6.97, 6.97, 6.64, 6.0, 5.72, 5.2, 4.47, 3.22, 3.22, 3.49, 3.16, 3.83, 5.09, 7.21, 8.48, 10.18, 11.4, 12.94, 13.39, 11.66, 6.54, 2.68, 1.24, 0.0, 0.0, 0.45, 1.2, 2.6, 5.36, 7.6, 7.06, 3.32, 2.4, 1.24, 1.0, 1.24, 2.6, 4.73, 5.64, 6.85, 7.73, 7.73, 10.34, 10.34, 10.77, 10.81, 10.81, 11.24, 10.81, 10.81, 10.47, 10.04, 10.14, 10.14, 10.14, 10.22, 10.22, 10.71, 10.73, 10.73, 10.28, 10.28, 10.73, 11.18, 11.18, 11.62, 11.62, 11.16, 11.16, 11.16, 11.62, 11.62, 11.62, 11.62, 11.62, 11.18, 10.73, 9.83, 9.39, 9.37, 9.37, 9.39, 9.39, 9.37, 9.77, 9.68, 9.39, 8.91, 8.68, 8.43, 8.0, 7.23, 6.97, 6.98, 6.98, 6.98, 7.3, 7.28, 6.97, 6.64, 6.35, 5.72, 5.72, 5.72, 4.75, 2.15, 1.4, 3.16, 1.86, 2.4, 3.04, 6.21, 8.17, 8.82, 12.18, 13.29, 12.58, 8.33, 6.4, 9.49, 8.46, 2.6, 0.0, 0.0, 0.8, 1.86, 2.63, 2.68, 2.17, 1.49, 1.26, 1.24, 1.24, 1.58, 2.54, 4.41, 6.22, 7.12, 7.76, 7.76, 10.81, 10.81, 10.81, 10.81, 10.81, 11.24, 10.81, 10.94, 10.47, 10.14, 10.14, 10.14, 10.58, 10.66, 10.66, 10.71, 10.73, 10.73, 10.73, 10.73, 10.73, 11.18, 11.18, 11.61, 11.61, 11.61, 11.61, 11.62, 11.62, 11.62, 11.62, 11.62, 11.62, 11.18, 10.73, 9.83, 9.37, 9.37, 9.82, 9.82, 9.83, 9.83, 9.77, 9.26, 8.48, 8.72, 8.91, 8.68, 7.9, 6.92, 6.95, 6.67, 6.97, 6.97, 6.97, 6.97, 6.97, 6.35, 6.06, 6.01, 6.01, 5.72, 5.37, 2.15, 1.88, 3.48, 2.23, 2.4, 3.51, 6.2, 7.21, 8.55, 11.21, 13.8, 13.64, 6.55, 2.6, 8.91, 13.21, 5.78, 0.0, 0.0, 0.63, 1.34, 1.79, 2.4, 2.0, 1.86, 1.86, 2.0, 2.0, 2.6, 2.68, 4.92, 6.26, 7.6, 8.49, 8.02, 10.81, 10.81, 10.81, 10.81, 11.24, 11.24, 10.94, 10.5, 10.47, 10.58, 10.58, 10.6, 10.67, 10.67, 10.71, 10.71, 10.73, 10.73, 10.73, 10.71, 11.16, 11.16, 11.62, 11.62, 11.62, 11.62, 11.62, 11.62, 11.62, 11.62, 11.62, 11.62, 11.62, 11.18, 10.73, 10.28, 9.82, 9.77, 9.77, 9.82, 10.28, 10.28, 10.22, 10.02, 8.96, 8.79, 8.51, 8.15, 7.8, 7.25, 6.64, 6.64, 6.64, 6.95, 6.95, 6.67, 6.67, 6.35, 6.34, 6.34, 6.04, 6.01, 5.69, 2.15, 2.15, 4.29, 4.65, 4.8, 4.8, 5.86, 6.0, 7.76, 10.16, 12.94, 15.9, 10.43, 2.0, 3.11, 6.22, 2.5, -0.57, -0.0, 0.42, 1.24, 2.15, 4.46, 4.0, 3.51, 3.07, 2.63, 2.68, 2.68, 3.07, 5.75, 7.11, 8.46, 9.28, 8.49, 10.81, 10.81, 11.24, 11.24, 11.28, 11.4, 10.94, 10.94, 10.5, 10.6, 10.6, 10.67, 10.67, 10.67, 10.71, 10.71, 10.73, 10.73, 11.18, 11.16, 11.18, 11.62, 11.62, 11.62, 11.62, 11.62, 11.62, 11.62, 11.62, 11.62, 11.62, 11.62, 11.62, 11.18, 11.18, 10.73, 10.27, 10.27, 10.22, 10.27, 10.73, 10.71, 10.58, 10.34, 10.01, 8.72, 8.51, 7.9, 8.0, 7.51, 6.92, 6.92, 6.32, 6.64, 6.34, 6.64, 6.95, 6.34, 6.34, 6.32, 6.32, 6.32, 5.65, 5.37, 4.74, 5.01, 3.22, 4.4, 6.16, 5.82, 5.82, 6.82, 9.1, 11.5, 14.56, 12.52, 3.04, -1.49, -1.2, -1.0, -0.0, 0.53, 0.76, 1.49, 3.43, 6.9, 8.25, 6.55, 3.58, 3.13, 3.13, 3.07, 3.74, 6.98, 8.33, 8.63, 9.15, 9.28, 10.81, 10.81, 11.24, 11.24, 11.4, 11.4, 10.94, 10.94, 11.04, 11.04, 11.11, 11.11, 11.11, 11.16, 11.16, 10.71, 10.73, 10.73, 11.18, 11.18, 11.62, 11.62, 11.62, 11.62, 11.62, 11.62, 11.62, 11.62, 11.62, 12.07, 12.07, 12.07, 11.62, 11.18, 11.18, 10.73, 10.73, 10.73, 10.73, 10.73, 10.73, 11.11, 10.6, 10.34, 10.12, 10.01, 8.68, 8.27, 8.0, 7.8, 7.44, 6.87, 6.87, 6.28, 6.32, 6.32, 6.64, 6.64, 6.32, 6.32, 6.62, 6.01, 6.87, 5.93, 5.59, 5.59, 2.8, 5.75, 4.84, 5.46, 5.43, 6.44, 8.15, 9.67, 11.72, 14.53, 10.9, 0.63, -4.66, -3.95, -0.0, 1.84, 1.88, 2.15, 3.72, 6.13, 7.76, 7.12, 4.47, 3.58, 3.97, 4.24, 4.93, 7.35, 8.63, 8.82, 8.4, 8.4, 11.24, 11.24, 11.24, 11.24, 11.4, 11.4, 10.94, 11.04, 11.04, 11.04, 11.11, 11.11, 11.11, 11.16, 11.16, 11.16, 10.73, 10.73, 10.73, 11.62, 11.62, 11.62, 11.62, 11.62, 11.62, 11.18, 11.18, 11.62, 11.62, 12.07, 12.07, 12.07, 11.62, 11.18, 10.73, 10.73, 10.73, 10.73, 11.18, 11.18, 11.12, 11.49, 10.94, 10.34, 10.0, 9.71, 9.35, 8.82, 8.0, 8.27, 7.72, 7.72, 7.15, 6.28, 6.28, 6.62, 6.32, 6.32, 6.62, 6.28, 6.28, 6.57, 5.98, 6.32, 5.59, 5.59, 5.93, 5.75, 4.11, 4.74, 5.77, 6.44, 8.15, 8.67, 10.23, 12.11, 16.11, 15.03, 2.91, -1.79, -0.89, 1.86, 2.5, 2.4, 3.04, 4.87, 6.66, 6.71, 4.43, 3.82, 5.59, 5.86, 5.6, 6.94, 8.3, 7.47, 7.47, 7.47, 10.81, 10.81, 11.37, 11.37, 11.4, 11.4, 11.49, 11.04, 11.04, 11.11, 11.11, 11.11, 11.11, 11.16, 11.16, 11.16, 10.73, 10.73, 11.18, 11.62, 11.62, 11.62, 11.62, 11.62, 11.18, 11.18, 11.62, 11.62, 12.07, 12.07, 12.07, 12.07, 11.62, 11.18, 10.73, 10.28, 10.73, 10.73, 11.18, 11.16, 11.57, 11.49, 11.28, 10.66, 10.42, 9.71, 9.35, 8.82, 8.82, 8.27, 7.9, 7.72, 7.15, 6.28, 6.28, 6.28, 6.28, 6.28, 6.28, 6.57, 6.57, 6.57, 6.57, 6.52, 5.93, 5.93, 5.69, 5.59, 3.72, 4.74, 5.82, 6.44, 7.06, 8.68, 9.92, 11.53, 14.7, 18.71, 16.69, 6.25, 0.0, 0.0, 1.34, 1.79, 2.24, 4.02, 6.26, 6.22, 4.0, 4.4, 5.34, 6.0, 6.0, 6.94, 6.4, 4.8, 4.8, 4.8, 10.81, 10.81, 10.94, 11.4, 11.4, 11.49, 11.49, 11.05, 11.04, 11.11, 11.11, 11.11, 11.12, 11.12, 11.16, 11.16, 11.18, 11.18, 11.18, 11.62, 11.62, 11.62, 11.62, 11.62, 11.18, 11.18, 11.62, 11.62, 12.07, 12.07, 12.07, 12.07, 11.62, 11.18, 10.73, 10.71, 10.71, 10.71, 11.18, 11.18, 11.57, 11.49, 11.4, 11.08, 10.42, 9.88, 9.48, 9.1, 8.55, 8.55, 8.27, 7.9, 7.72, 6.87, 6.28, 6.28, 6.28, 6.57, 6.57, 6.57, 6.57, 6.57, 6.28, 6.57, 6.87, 5.69, 5.69, 4.74, 4.01, 4.74, 5.93, 5.77, 6.32, 8.68, 9.9, 11.2, 13.35, 15.59, 17.1, 14.76, 6.7, 0.0, -1.49, 0.0, 1.79, 4.92, 7.6, 6.66, 4.4, 3.49, 6.8, 4.09, 4.46, 4.22, 2.54, 1.2, 1.2, 1.2, 10.94, 10.94, 11.37, 11.4, 11.4, 11.49, 11.49, 11.49, 11.05, 11.12, 11.12, 11.12, 11.12, 11.12, 11.16, 11.16, 11.16, 11.16, 11.16, 11.61, 11.62, 11.62, 11.62, 11.62, 11.18, 11.62, 11.62, 11.62, 12.07, 12.06, 12.06, 11.61, 11.18, 11.18, 10.71, 11.16, 11.16, 11.16, 11.18, 11.62, 11.61, 11.57, 11.4, 10.81, 10.42, 10.0, 9.88, 9.1, 8.55, 8.55, 8.43, 7.9, 7.72, 6.87, 6.28, 6.28, 6.57, 6.57, 6.57, 6.57, 6.28, 6.28, 6.62, 6.32, 6.01, 6.52, 5.37, 4.01, 5.06, 4.74, 5.43, 5.69, 7.06, 8.67, 10.0, 10.15, 11.26, 13.43, 14.51, 15.13, 13.49, 2.4, -3.14, -2.4, 0.89, 4.47, 8.05, 8.02, 4.93, 5.75, 4.4, 1.26, 0.6, 0.0, 0.0, 0.0, 0.0, 0.0, 11.4, 11.4, 11.4, 11.4, 11.4, 11.49, 11.49, 11.49, 11.05, 11.12, 11.12, 11.12, 11.12, 11.12, 11.16, 11.16, 11.16, 11.16, 11.16, 11.16, 11.18, 11.18, 11.18, 11.18, 11.62, 11.62, 11.62, 12.06, 12.06, 12.06, 12.06, 11.61, 11.18, 11.18, 11.16, 11.16, 11.18, 11.62, 11.62, 11.62, 11.61, 11.57, 11.4, 11.24, 10.49, 10.21, 10.11, 9.35, 8.82, 8.82, 8.43, 7.9, 7.35, 6.87, 6.28, 6.57, 6.57, 6.57, 6.57, 6.28, 6.28, 6.62, 6.62, 6.32, 6.04, 6.32, 5.37, 4.47, 5.37, 4.95, 4.95, 5.69, 7.44, 8.63, 8.67, 9.05, 10.28, 11.9, 13.51, 14.13, 15.74, 9.92, -0.95, -4.09, 0.0, 3.74, 7.01, 7.01, 3.32, 0.95, 0.45, -1.34, -1.34, -1.34, -0.89, -0.89, -0.89, -0.89, 11.4, 11.4, 11.4, 11.84, 11.4, 11.49, 11.49, 11.49, 11.49, 11.57, 11.57, 11.57, 11.12, 11.12, 11.12, 11.16, 11.16, 11.16, 11.16, 11.16, 11.16, 11.18, 11.18, 11.18, 11.62, 11.61, 11.61, 12.06, 12.06, 12.06, 12.06, 11.61, 11.16, 11.16, 11.16, 11.18, 11.62, 11.62, 11.62, 11.61, 11.57, 11.49, 11.4, 11.13, 10.91, 10.83, 10.21, 9.71, 9.2, 8.43, 8.27, 7.9, 7.35, 6.79, 6.57, 6.57, 6.57, 6.57, 6.57, 6.28, 6.62, 6.62, 6.32, 6.32, 5.72, 6.64, 6.01, 4.75, 4.75, 5.06, 5.82, 5.77, 7.07, 7.69, 8.03, 8.65, 9.3, 10.91, 12.16, 13.51, 15.12, 16.1, 5.09, -1.86, -0.54, 2.51, 4.09, 2.4, 0.32, -0.0, -1.2, -1.79, -1.79, -1.79, -0.89, -0.45, -0.45, -0.45, 11.84, 11.84, 11.84, 11.84, 11.4, 11.49, 11.49, 11.49, 11.57, 11.57, 11.57, 11.57, 11.57, 11.57, 11.12, 11.16, 11.16, 11.16, 11.16, 11.16, 11.16, 11.16, 11.16, 11.16, 11.61, 11.61, 11.61, 11.61, 12.06, 12.06, 11.61, 11.61, 11.16, 11.16, 11.16, 11.61, 11.62, 11.62, 12.07, 12.06, 11.57, 11.94, 11.71, 11.56, 10.91, 10.91, 10.42, 9.71, 8.96, 8.43, 8.0, 8.0, 7.44, 7.15, 6.57, 6.57, 6.57, 6.57, 6.28, 6.28, 6.62, 6.32, 6.32, 6.32, 6.01, 5.69, 5.69, 5.24, 4.65, 5.43, 5.15, 4.81, 5.69, 6.64, 7.27, 8.6, 8.93, 9.62, 10.9, 12.52, 15.12, 16.72, 13.15, 2.15, -0.6, 0.0, -0.89, -1.61, -0.0, 1.13, 1.2, -0.0, -0.0, -0.0, -0.0, 0.0, 0.0, 0.0, 11.84, 11.84, 11.84, 11.4, 11.49, 11.49, 11.49, 11.49, 11.57, 11.57, 11.57, 11.57, 11.57, 11.57, 11.16, 11.16, 11.16, 11.16, 11.16, 11.16, 11.16, 11.16, 11.16, 11.16, 11.61, 11.61, 11.61, 11.61, 11.61, 12.06, 11.61, 11.57, 11.12, 11.12, 11.61, 11.61, 11.62, 12.07, 12.07, 12.06, 12.02, 11.95, 11.71, 11.33, 10.91, 10.91, 10.62, 10.11, 9.35, 8.55, 8.37, 8.0, 7.8, 7.15, 6.79, 6.57, 6.28, 6.28, 6.62, 6.62, 6.32, 6.32, 6.32, 6.32, 6.32, 5.59, 4.83, 5.59, 5.59, 5.69, 4.95, 3.79, 3.49, 5.69, 6.24, 7.97, 8.93, 9.62, 10.63, 12.51, 14.11, 15.72, 15.72, 7.68, 0.45, -2.24, -2.86, -2.73, -0.67, 2.12, 4.29, 3.48, 2.21, 1.2, 0.57, -0.0, -0.0, -0.0, 11.84, 11.84, 11.4, 11.4, 11.49, 11.49, 11.49, 11.49, 11.57, 11.57, 11.57, 11.57, 11.57, 11.12, 11.16, 11.16, 11.16, 11.16, 11.16, 11.16, 11.16, 11.16, 11.16, 11.16, 11.16, 11.61, 11.57, 11.57, 11.57, 12.02, 12.01, 11.57, 11.57, 11.57, 11.61, 12.06, 12.07, 12.07, 12.07, 12.06, 12.02, 11.86, 11.56, 11.33, 10.91, 10.91, 10.62, 9.88, 9.1, 8.55, 8.08, 8.08, 7.73, 7.21, 6.87, 6.87, 6.62, 6.62, 6.62, 6.62, 6.62, 6.28, 6.62, 6.62, 6.32, 6.01, 4.83, 5.3, 5.49, 5.49, 5.76, 6.32, 5.43, 3.22, 4.65, 6.24, 7.9, 9.62, 10.9, 11.88, 13.43, 15.03, 16.55, 10.8, -2.12, -2.5, -2.15, -2.07, -1.23, 1.36, 4.87, 5.69, 3.79, 3.07, 2.84, 1.9, 1.9, 1.9, 11.4, 11.4, 11.4, 11.4, 11.49, 11.49, 11.49, 11.49, 11.57, 11.57, 11.57, 11.57, 11.12, 11.16, 11.16, 11.16, 11.16, 11.16, 11.16, 11.16, 11.16, 11.16, 11.11, 11.11, 11.12, 11.57, 11.57, 11.57, 11.57, 12.01, 12.01, 11.57, 11.57, 11.61, 11.61, 12.06, 12.07, 12.07, 12.07, 12.06, 11.95, 12.18, 11.56, 11.33, 10.91, 10.91, 10.21, 9.48, 8.93, 8.29, 8.08, 8.08, 8.08, 7.17, 7.21, 6.87, 6.87, 6.87, 6.62, 6.28, 6.28, 6.28, 6.28, 6.62, 6.32, 6.01, 5.3, 4.83, 4.71, 5.49, 5.49, 6.24, 5.76, 4.56, 3.33, 5.59, 7.64, 9.92, 11.26, 11.75, 12.39, 13.99, 17.38, 1.7, -2.4, -2.15, -1.16, -1.33, -0.66, 0.64, 5.13, 6.64, 4.43, 3.07, 4.46, 5.09, 5.09, 5.09, 10.94, 10.94, 11.4, 11.49, 11.49, 11.49, 11.49, 11.49, 11.12, 11.12, 11.12, 11.12, 11.12, 11.16, 11.16, 11.16, 11.16, 11.16, 10.71, 11.16, 11.16, 11.16, 11.11, 11.11, 11.12, 11.57, 11.57, 11.57, 11.57, 11.57, 11.57, 11.57, 11.57, 11.61, 11.61, 12.07, 12.07, 12.5, 12.46, 12.39, 12.3, 12.04, 11.39, 11.39, 10.91, 10.42, 9.71, 9.35, 8.55, 8.55, 8.37, 8.0, 7.8, 7.44, 7.21, 6.87, 6.87, 6.87, 6.79, 6.57, 6.57, 6.57, 6.28, 6.28, 6.62, 5.71, 5.71, 5.38, 4.83, 4.83, 5.3, 5.59, 5.94, 5.59, 4.95, 4.95, 7.35, 9.66, 11.5, 11.83, 11.83, 12.94, 15.49, 2.17, -3.32, -2.73, -0.67, -0.0, -0.0, 1.41, 4.87, 6.98, 4.11, 2.84, 4.46, 6.07, 6.07, 6.07, 10.94, 10.94, 10.94, 11.04, 11.05, 11.05, 11.05, 11.05, 11.04, 11.11, 11.11, 11.11, 11.11, 11.11, 11.16, 11.16, 11.16, 10.71, 10.71, 11.11, 11.11, 11.11, 11.11, 11.11, 11.11, 11.57, 11.57, 11.57, 11.57, 11.57, 11.57, 11.57, 11.57, 11.61, 11.62, 12.07, 12.07, 12.5, 12.39, 12.3, 12.18, 11.99, 11.81, 11.21, 11.12, 10.21, 9.71, 8.96, 8.82, 8.0, 8.0, 8.0, 7.44, 7.21, 6.87, 7.15, 7.15, 6.79, 6.79, 6.79, 6.57, 6.57, 6.57, 6.57, 6.28, 6.01, 6.01, 5.38, 4.95, 4.65, 4.95, 4.95, 6.11, 5.69, 5.77, 4.74, 6.73, 9.04, 11.5, 11.88, 11.83, 12.47, 17.59, 5.34, -3.51, -5.72, -1.49, 1.52, 2.66, 2.04, 4.02, 6.06, 4.12, 2.86, 4.4, 6.13, 6.13, 6.13, 10.94, 10.94, 10.94, 10.94, 11.04, 11.04, 11.04, 11.04, 11.04, 11.04, 11.11, 11.11, 11.11, 11.11, 10.67, 10.67, 10.67, 10.67, 11.11, 11.11, 11.11, 11.11, 11.11, 11.04, 11.04, 11.05, 11.57, 11.57, 11.57, 11.57, 11.57, 11.57, 11.61, 11.61, 11.62, 11.62, 12.06, 12.02, 12.39, 12.3, 12.04, 11.81, 11.39, 11.21, 11.12, 10.62, 9.71, 8.96, 8.43, 8.27, 8.27, 7.9, 7.35, 7.15, 7.15, 7.15, 6.79, 6.79, 6.79, 6.79, 6.79, 7.07, 6.51, 6.23, 6.23, 6.23, 5.98, 5.65, 5.37, 5.06, 4.74, 5.82, 5.82, 5.77, 5.77, 5.46, 5.82, 8.05, 10.8, 11.83, 11.88, 14.39, 18.15, 15.24, -0.0, -8.24, -4.07, 2.11, 4.73, 4.02, 3.48, 4.75, 5.31, 3.74, 3.51, 6.07, 6.07, 6.07, 10.94, 10.94, 10.94, 10.94, 10.94, 11.04, 11.04, 11.04, 11.04, 11.04, 11.04, 11.11, 11.11, 10.67, 10.67, 10.67, 10.67, 11.11, 11.11, 11.11, 11.04, 11.04, 11.04, 11.04, 11.04, 11.04, 11.49, 11.49, 11.57, 11.57, 12.01, 11.57, 11.61, 11.61, 11.62, 11.62, 11.61, 12.02, 11.95, 11.86, 11.71, 11.56, 11.39, 11.33, 11.12, 10.62, 9.48, 8.96, 8.43, 8.27, 8.27, 7.35, 7.35, 7.35, 7.15, 7.07, 7.07, 7.07, 7.07, 7.07, 7.07, 6.7, 6.7, 6.51, 6.51, 6.15, 5.93, 5.93, 5.06, 4.74, 5.15, 5.46, 5.82, 5.77, 6.44, 6.82, 6.4, 7.35, 9.2, 10.28, 12.79, 14.3, 17.13, 20.34, 8.63, -4.09, -6.28, 0.71, 6.17, 6.64, 4.75, 5.31, 6.8, 5.86, 4.02, 5.36, 5.36, 5.36, 10.94, 10.94, 10.94, 10.94, 10.94, 10.94, 11.04, 11.04, 11.04, 11.04, 11.04, 11.11, 10.67, 10.67, 10.67, 10.67, 11.11, 11.11, 11.04, 11.04, 11.04, 11.04, 11.04, 11.04, 11.04, 11.04, 11.05, 11.49, 11.49, 11.57, 12.02, 11.57, 11.61, 11.61, 11.18, 11.62, 11.62, 12.06, 12.02, 11.49, 11.4, 11.28, 11.08, 10.91, 10.62, 10.21, 9.48, 8.96, 8.43, 8.27, 7.9, 7.35, 7.35, 7.61, 7.61, 7.23, 7.23, 7.23, 7.23, 7.48, 7.48, 6.95, 6.95, 6.95, 6.41, 6.41, 6.23, 5.86, 5.29, 5.15, 5.46, 5.82, 5.43, 5.43, 6.44, 6.7, 7.07, 6.82, 7.67, 11.2, 12.29, 13.75, 15.61, 19.51, 16.03, 0.61, -6.01, -0.71, 5.7, 8.57, 7.95, 7.2, 7.98, 7.45, 4.47, 4.92, 4.92, 4.92, 10.94, 10.94, 10.94, 10.94, 10.94, 10.94, 10.94, 11.04, 11.04, 11.04, 11.04, 10.6, 10.6, 10.67, 10.67, 11.11, 11.04, 11.04, 11.04, 11.04, 11.04, 11.04, 11.04, 11.04, 11.04, 11.04, 11.04, 11.49, 11.49, 11.57, 12.02, 12.02, 11.61, 11.61, 11.61, 11.62, 11.62, 12.07, 11.61, 11.61, 11.04, 10.81, 10.66, 10.42, 10.42, 9.71, 9.6, 8.82, 8.68, 8.54, 8.15, 7.61, 7.61, 7.61, 7.61, 7.23, 7.48, 7.48, 7.48, 7.48, 7.71, 7.31, 7.2, 6.8, 6.8, 6.67, 6.28, 5.75, 5.75, 5.21, 5.58, 5.46, 5.46, 5.46, 5.77, 6.79, 7.44, 8.0, 8.14, 10.55, 11.34, 13.23, 15.1, 18.16, 18.04, 6.06, -2.3, -0.72, 5.52, 9.5, 10.04, 9.05, 8.48, 7.11, 4.47, 4.24, 4.24, 4.24, 10.94, 10.94, 10.94, 10.94, 10.94, 10.94, 10.94, 10.94, 11.04, 11.04, 10.6, 10.6, 10.6, 10.6, 11.04, 11.04, 11.04, 11.04, 11.04, 11.04, 11.04, 11.04, 11.04, 11.04, 11.04, 11.04, 11.04, 11.49, 11.49, 11.57, 12.02, 12.06, 12.06, 12.06, 11.61, 12.06, 12.07, 12.07, 12.07, 11.61, 11.04, 10.47, 10.18, 10.18, 9.92, 9.42, 8.8, 8.68, 8.68, 8.15, 7.76, 7.76, 8.0, 7.87, 7.87, 7.48, 7.48, 7.6, 7.81, 7.81, 7.71, 7.71, 7.31, 7.2, 6.8, 6.67, 6.28, 5.75, 5.75, 5.37, 5.21, 5.82, 5.46, 5.93, 5.46, 6.44, 7.42, 7.6, 7.67, 8.05, 10.8, 12.7, 14.3, 16.85, 18.55, 11.53, 0.7, -0.0, 4.87, 9.84, 11.42, 10.73, 9.34, 6.58, 3.97, 4.0, 4.0, 4.0, 10.94, 10.94, 10.94, 10.94, 10.94, 10.94, 10.94, 10.94, 10.94, 11.04, 10.6, 10.6, 10.6, 10.6, 11.04, 11.04, 11.04, 11.04, 11.04, 11.04, 11.04, 11.04, 11.04, 11.04, 11.04, 11.04, 11.04, 11.49, 11.49, 11.57, 12.06, 12.06, 12.06, 12.07, 12.07, 12.07, 12.07, 12.07, 12.07, 11.57, 11.04, 10.47, 10.34, 9.7, 9.7, 9.21, 9.21, 8.51, 8.51, 8.4, 8.0, 8.0, 8.0, 8.0, 8.0, 8.0, 8.22, 8.22, 8.22, 7.81, 7.81, 7.93, 7.51, 7.51, 6.8, 6.8, 6.28, 6.51, 6.0, 5.6, 5.6, 6.0, 5.75, 6.32, 5.46, 6.07, 7.03, 7.07, 7.44, 8.05, 9.6, 11.75, 13.35, 15.35, 16.69, 14.13, 6.88, 2.29, 4.83, 8.9, 11.9, 12.13, 11.3, 8.25, 3.51, 2.84, 2.84, 2.84, 10.94, 10.94, 10.94, 10.94, 10.94, 10.94, 10.94, 10.94, 10.94, 11.04, 10.6, 10.6, 10.6, 10.6, 11.04, 11.04, 11.04, 11.04, 11.04, 11.04, 11.04, 11.04, 11.04, 11.04, 11.04, 11.04, 11.04, 11.49, 11.49, 11.57, 12.06, 12.06, 12.06, 12.07, 12.07, 12.07, 12.07, 12.07, 12.07, 11.57, 11.04, 10.47, 10.34, 9.7, 9.7, 9.21, 9.21, 8.51, 8.51, 8.4, 8.0, 8.0, 8.0, 8.0, 8.0, 8.0, 8.22, 8.22, 8.22, 7.81, 7.81, 7.93, 7.51, 7.51, 6.8, 6.8, 6.28, 6.51, 6.0, 5.6, 5.6, 6.0, 5.75, 6.32, 5.46, 6.07, 7.07, 7.07, 7.44, 8.05, 9.6, 10.8, 11.83, 13.43, 14.74, 14.11, 10.12, 6.42, 5.49, 7.9, 10.86, 12.87, 13.51, 10.9, 3.97, 1.4, 1.4, 1.4]}, {"header": {"dx": 0.06612293990616946, "dy": 0.0552356325346848, "nx": 98, "ny": 59, "la1": 35.046912555036876, "la2": 31.78801023549047, "lo1": -121.43107172385933, "lo2": -114.95102361305473, "refTime": "2026041308", "parameterCategory": 1, "parameterNumber": 3}, "data": [-1.75, -1.75, -1.75, -1.75, -1.75, -1.75, -2.3, -2.3, -2.33, -2.33, -2.21, -1.71, -1.6, -0.7, 0.0, 0.0, 0.0, 0.0, 1.3, 3.79, 4.8, 5.7, 4.57, 2.21, 1.6, 2.3, 3.58, 3.47, 1.79, 0.0, -0.0, -0.0, -0.79, -0.88, -0.88, -1.66, -2.68, -3.58, -3.22, -2.84, -2.41, -1.49, -0.95, 0.0, 0.0, 0.0, -0.85, -1.74, -0.85, 0.0, 0.0, 0.0, 0.7, 1.55, 2.29, 2.47, 2.35, 1.63, 1.45, 0.74, 0.74, 0.74, 0.0, 0.0, 0.76, 1.7, 1.47, 2.2, 2.35, 2.35, 1.6, 1.55, 1.55, 1.6, 2.18, 2.39, 2.31, 1.36, 0.0, 0.0, 0.0, -1.2, -2.12, -3.13, -4.47, -5.36, -4.92, -4.41, -3.32, -4.46, -4.95, -4.65, -3.22, 0.0, 0.79, 2.4, 3.11, 3.22, -1.75, -1.75, -1.65, -1.75, -1.75, -1.75, -2.3, -2.3, -2.19, -2.33, -2.37, -1.65, -0.76, -0.66, 0.0, 0.0, 0.0, 0.0, 2.48, 4.22, 5.7, 5.7, 4.65, 2.21, 1.8, 2.41, 3.6, 2.54, 0.45, 0.63, 0.89, 0.0, -0.0, -0.99, -0.87, -1.98, -2.53, -3.6, -3.47, -2.0, -0.0, 0.0, 0.0, 0.0, 0.71, 0.76, 0.0, 0.0, 0.0, 0.71, 0.76, 1.6, 1.55, 2.29, 2.04, 2.2, 1.63, 1.55, 0.79, 0.79, 0.74, 0.78, 0.81, 0.79, 0.76, 0.7, 0.81, 1.47, 1.52, 1.63, 1.52, 0.79, 0.61, 0.82, 1.49, 2.21, 2.34, 1.36, 0.0, 0.0, 0.0, -1.2, -2.12, -3.13, -4.47, -5.36, -4.92, -4.41, -3.32, -4.46, -4.95, -4.65, -3.22, 0.0, 0.79, 2.4, 3.11, 3.22, -1.65, -1.65, -1.65, -1.75, -1.75, -1.75, -1.75, -2.3, -2.19, -2.33, -2.21, -1.71, -0.82, 0.0, 0.0, 0.0, 0.0, 0.71, 3.16, 5.2, 5.31, 4.8, 4.11, 3.49, 4.11, 3.58, 2.6, 0.45, 0.0, 0.63, 1.79, 2.24, 2.0, 0.0, -0.89, -2.24, -2.68, -3.13, -2.68, -0.63, 0.0, 1.0, 0.99, 1.74, 1.4, 1.8, 1.8, 2.15, 2.41, 2.3, 3.07, 3.22, 2.29, 2.47, 2.04, 1.6, 0.78, 0.79, 0.84, 1.55, 1.6, 0.88, 0.76, 1.74, 0.71, 0.76, 0.73, 1.47, 2.35, 3.09, 3.09, 1.52, 0.73, 0.7, 0.74, 1.54, 1.54, 1.6, 0.0, 0.0, 0.0, -1.2, -3.04, -4.41, -5.31, -5.36, -5.36, -4.47, -4.24, -5.46, -4.74, -3.16, -0.71, 0.0, 1.49, 2.2, 2.88, 2.98, -1.73, -1.73, -1.73, -1.75, -1.75, -1.75, -1.75, -1.75, -1.67, -2.33, -2.21, -2.23, -1.52, -0.73, 0.0, 0.0, 0.0, 0.71, 3.6, 4.85, 4.38, 2.84, 2.48, 2.76, 4.11, 5.01, 2.53, 0.0, 0.0, 0.8, 2.6, 4.02, 3.95, 3.72, 1.13, 0.0, -2.21, -3.2, -2.4, 0.0, 1.74, 2.41, 2.41, 1.6, 1.8, 2.41, 3.16, 3.84, 4.11, 4.01, 3.9, 3.33, 3.11, 2.29, 1.47, 0.82, 0.78, 0.79, 1.55, 1.52, 1.66, 1.74, 2.21, 1.74, 2.3, 2.53, 2.73, 4.02, 5.64, 6.51, 6.71, 4.71, 2.4, 0.69, 0.0, 0.0, 0.0, 0.0, 0.0, 0.0, -0.6, -2.12, -3.07, -4.41, -4.24, -3.74, -3.58, -4.47, -5.16, -4.46, -1.49, 0.0, 0.0, 0.54, 1.49, 3.07, 2.98, 2.98, -1.73, -2.28, -2.28, -2.3, -1.75, -1.75, -1.75, -1.75, -1.67, -1.78, -1.69, -1.71, -1.52, -0.88, 0.0, 0.0, 0.0, 1.74, 3.04, 3.95, 4.24, 3.16, 2.48, 2.48, 3.48, 3.49, 2.73, 0.0, 0.0, 1.26, 2.21, 2.6, 2.68, 2.41, 1.23, 0.0, 0.0, -1.41, -1.58, 1.34, 3.6, 4.22, 3.79, 3.35, 2.3, 2.15, 3.22, 4.19, 4.43, 4.65, 3.9, 3.33, 2.29, 1.7, 0.76, 0.72, 0.83, 1.55, 2.4, 1.6, 1.6, 2.6, 3.22, 4.46, 6.44, 7.06, 6.7, 6.7, 8.03, 9.23, 9.31, 8.72, 6.21, 4.07, 1.52, 0.0, -1.6, -1.47, 0.0, 0.0, -1.34, -2.8, -3.51, -3.32, -3.83, -3.74, -4.02, -3.97, -2.91, -0.57, 1.24, 1.9, 1.49, 1.58, 2.5, 3.79, 3.0, 2.29, -2.28, -2.28, -2.28, -2.28, -2.3, -2.3, -2.3, -1.75, -1.67, -1.78, -1.69, -1.71, -0.72, -0.88, 0.0, 0.0, 0.0, 1.74, 2.54, 2.68, 2.97, 3.22, 3.79, 4.11, 3.79, 2.73, 2.4, 1.41, 1.9, 2.68, 2.0, 0.95, 0.0, 0.0, 0.0, 0.0, 0.0, 0.0, 0.0, 1.9, 4.38, 5.4, 5.82, 4.65, 4.01, 3.35, 3.16, 3.16, 3.63, 3.9, 3.9, 3.11, 2.29, 1.7, 0.82, 1.63, 1.55, 2.31, 2.31, 2.47, 2.21, 3.2, 5.75, 7.89, 9.49, 10.28, 9.3, 8.03, 7.68, 8.53, 8.56, 8.61, 8.61, 7.13, 5.29, 3.07, 0.0, -0.65, 0.0, 0.0, -2.5, -4.0, -3.32, -2.5, -2.53, -3.74, -3.58, -2.24, 0.0, 1.79, 2.6, 2.86, 2.5, 2.8, 2.86, 3.22, 3.0, 2.2, -2.25, -2.39, -2.28, -2.28, -2.28, -2.3, -2.3, -2.3, -1.67, -1.78, -1.69, -1.71, -0.78, -0.81, -1.05, 0.0, 0.0, 0.8, 1.2, 0.89, 1.79, 1.79, 1.98, 2.53, 2.6, 2.4, 2.2, 2.48, 3.72, 3.6, 2.4, 0.0, 0.0, -0.87, -0.76, 0.0, 0.78, 1.1, 0.0, 2.54, 3.35, 4.02, 5.2, 5.59, 5.69, 5.37, 4.65, 3.07, 2.41, 3.22, 3.2, 2.47, 2.47, 1.6, 0.78, 1.63, 2.4, 1.65, 0.83, 1.66, 3.2, 5.31, 8.01, 9.58, 10.01, 10.28, 9.62, 7.64, 6.01, 5.64, 5.51, 5.48, 5.71, 5.55, 4.0, 3.04, 1.52, 0.0, -0.0, -1.26, -2.86, -4.09, -2.53, -1.4, -1.2, -1.58, -0.95, -0.0, 1.7, 2.68, 2.68, 3.82, 4.66, 4.93, 4.43, 2.35, 1.47, 1.16, -2.25, -2.25, -2.25, -2.28, -2.28, -2.28, -2.17, -2.3, -2.19, -1.78, -1.69, -1.71, -0.89, -0.81, -1.14, 0.0, 0.0, 0.57, 1.2, 0.89, 0.89, 0.0, -0.89, -0.6, -0.87, 0.0, 1.27, 2.53, 3.72, 2.48, 1.27, 0.0, 0.0, 0.0, 0.0, 0.0, 0.0, 0.0, 1.19, 1.34, 2.8, 2.4, 3.39, 3.79, 4.74, 5.69, 6.32, 4.56, 3.22, 3.22, 2.3, 1.55, 0.72, 0.78, 0.78, 1.63, 1.65, 0.79, 0.0, 0.85, 4.38, 7.15, 8.46, 9.11, 8.55, 8.32, 8.53, 6.79, 3.91, 2.31, 1.5, 1.52, 0.77, 0.0, 0.0, -0.7, 0.0, 0.0, 0.0, -0.45, -0.89, -2.21, -0.65, -0.0, -0.0, 0.57, 1.26, 1.86, 2.6, 3.13, 4.02, 4.92, 5.16, 6.08, 5.21, 2.99, 0.66, 0.54, -2.25, -2.25, -2.25, -2.25, -2.28, -2.28, -1.73, -1.65, -1.75, -1.78, -1.78, -1.71, -1.1, -0.88, -0.81, 0.0, 0.0, 0.0, 0.6, 0.8, 0.0, -1.79, -3.13, -3.13, -2.23, -1.27, 0.0, 1.58, 1.6, 1.19, 0.0, 0.0, 0.0, 0.0, 0.79, 0.0, 0.0, 0.0, 0.0, 2.0, 2.24, 3.13, 3.13, 3.2, 3.79, 4.43, 5.69, 6.01, 5.59, 4.56, 4.22, 1.47, 0.0, 0.0, 0.0, 0.83, 0.0, 0.0, 0.0, 2.54, 6.71, 8.49, 8.01, 7.71, 7.35, 7.06, 7.08, 5.51, 2.28, 0.0, 0.0, -1.36, -2.28, -2.76, -3.47, -3.02, -2.23, 0.0, 0.0, 0.0, 0.54, 0.0, 0.6, 0.45, 0.95, 2.23, 2.4, 2.8, 3.32, 4.41, 4.92, 4.43, 4.24, 4.43, 4.28, 3.06, 0.66, 0.54, -2.25, -2.35, -2.25, -2.25, -2.25, -2.28, -1.73, -1.73, -1.65, -1.75, -1.75, -2.33, -2.21, -1.71, -0.78, -0.81, 0.0, 0.0, 0.0, 0.0, 0.0, 0.0, -1.9, -2.68, -2.8, 0.0, 0.0, 0.0, 1.6, 1.19, 1.13, 0.0, 0.0, 0.0, 0.0, 0.0, 0.0, 0.0, 1.26, 2.4, 2.68, 2.68, 2.54, 2.0, 2.84, 3.48, 3.22, 4.03, 5.76, 5.49, 5.49, 4.46, 2.35, 0.81, 0.0, 0.0, -1.55, -3.35, 0.0, 5.36, 8.94, 9.36, 9.32, 7.21, 6.94, 6.06, 5.52, 5.1, 1.43, -1.52, -3.21, -3.46, -4.32, -4.32, -4.15, -3.61, -2.88, -1.2, 0.0, 0.99, 1.88, 2.73, 2.04, 1.35, 1.26, 1.49, 2.5, 3.45, 3.45, 3.82, 4.02, 3.82, 2.86, 2.07, 1.49, 1.44, 1.35, 1.88, -2.35, -2.35, -2.35, -2.25, -2.25, -1.71, -1.73, -1.73, -1.73, -1.73, -1.65, -1.75, -2.3, -2.33, -1.73, -0.7, 0.0, -0.58, 0.0, 0.0, 0.0, 0.0, 0.0, 0.0, 0.0, 0.0, 0.0, 0.0, 0.0, 0.0, 1.27, 0.0, 0.0, 0.0, -0.6, -1.19, 0.0, 0.0, 1.9, 2.21, 2.6, 2.12, 2.0, 2.53, 2.84, 1.6, 2.53, 2.6, 3.2, 4.83, 6.64, 8.6, 8.27, 5.59, 2.47, 0.78, 0.0, -4.02, -0.0, 6.98, 10.28, 9.81, 7.56, 6.55, 7.6, 8.32, 8.16, 7.01, 3.21, -2.88, -6.06, -5.86, -4.87, -4.73, -4.14, -2.2, -0.95, -0.45, 0.0, 1.26, 1.88, 3.38, 4.14, 3.44, 2.82, 1.24, 2.17, 3.07, 4.93, 3.32, 3.13, 2.5, 1.16, 0.0, 0.0, 0.0, 2.07, 3.14, -2.35, -2.35, -2.35, -2.25, -2.25, -1.71, -1.71, -1.73, -1.73, -1.73, -1.73, -1.73, -1.65, -1.75, -1.78, -1.14, -1.07, -0.54, -0.57, -0.54, -0.58, -0.59, -0.57, -1.1, 0.0, 0.0, 0.0, 0.0, 0.0, 0.0, 0.0, 0.0, 0.0, -0.95, -1.49, -1.33, 0.0, 1.49, 1.58, 2.6, 2.8, 2.6, 2.23, 2.84, 2.53, 1.49, 2.73, 3.49, 4.43, 5.59, 8.05, 9.92, 10.9, 9.62, 5.69, 6.0, 8.14, 2.8, 1.7, 6.98, 11.18, 10.62, 6.55, 5.31, 9.11, 11.75, 13.14, 12.49, 10.55, 2.21, -4.02, -6.85, -4.71, -2.88, -1.24, -0.89, -0.0, 0.0, 0.6, 1.49, 1.88, 3.64, 4.5, 4.4, 4.32, 3.37, 1.58, 2.5, 4.0, 3.07, 1.79, 0.57, 0.0, -1.49, -1.27, 0.61, 3.07, 4.24, -2.9, -2.9, -2.35, -2.25, -2.25, -2.25, -1.71, -1.71, -1.71, -1.71, -1.73, -1.73, -1.65, -1.11, -1.18, -1.18, -0.56, -0.56, -0.56, -0.56, -0.57, -0.57, -1.14, -1.16, -1.18, -1.2, -0.57, -0.58, -0.59, -1.19, -0.65, -0.57, -0.8, -1.74, -1.24, -0.71, 0.0, 0.85, 1.26, 1.58, 1.58, 1.74, 1.9, 0.8, 0.95, 2.8, 3.72, 4.65, 5.75, 6.13, 7.03, 7.69, 7.64, 7.94, 9.21, 12.52, 14.14, 11.93, 7.69, 8.94, 12.07, 10.49, 6.51, 6.21, 10.7, 13.05, 14.27, 15.03, 15.59, 14.7, 5.46, -1.79, -3.95, -1.24, -0.8, -0.45, 0.0, 0.6, 2.07, 2.88, 3.64, 4.56, 4.87, 4.75, 5.29, 5.55, 3.09, 2.12, 2.5, 2.68, 0.6, -0.71, -1.9, -1.9, 0.0, 2.4, 3.97, 5.31, -2.93, -2.77, -2.77, -2.25, -2.25, -2.25, -2.25, -1.71, -1.71, -1.71, -1.71, -1.73, -1.65, -1.11, -1.11, -0.56, -0.56, -0.56, -0.56, -0.59, -0.56, -0.56, -0.61, -1.14, -1.14, -1.16, -1.18, -1.1, -1.12, -1.14, -1.7, -1.66, -1.41, -1.74, -0.99, -0.99, 0.0, 0.0, 0.0, 0.0, 0.0, 0.0, 0.0, 0.0, 1.4, 1.9, 2.0, 2.84, 4.46, 4.65, 4.74, 5.06, 4.75, 6.7, 8.94, 9.28, 9.11, 9.88, 11.35, 9.72, 11.18, 10.04, 8.67, 9.83, 11.62, 11.84, 11.95, 11.72, 12.79, 13.51, 13.97, 7.18, -1.2, -2.68, -1.7, 0.0, 0.57, 3.07, 4.83, 5.38, 5.38, 4.07, 3.61, 3.47, 4.84, 5.51, 5.2, 1.9, 1.24, 0.89, 0.0, -1.58, -1.26, 0.0, 1.7, 3.13, 4.47, 4.87, -2.93, -2.93, -2.93, -2.93, -2.39, -2.25, -2.25, -2.25, -2.25, -1.71, -1.71, -1.73, -1.11, -1.11, -0.56, -0.56, -0.59, -0.59, -0.59, -0.59, -0.56, -0.56, -0.56, -0.56, -0.56, -0.57, -0.54, -0.58, -0.55, -1.18, -1.2, -1.14, -1.14, 0.0, 0.0, 0.0, 0.0, 0.0, 0.0, 0.0, 0.0, 0.0, 0.0, 0.0, 0.0, 0.0, 1.9, 1.2, 1.6, 2.84, 2.4, 3.76, 3.76, 5.37, 6.26, 5.7, 5.2, 6.35, 9.27, 10.47, 8.46, 7.52, 8.49, 9.77, 10.73, 10.47, 10.18, 9.2, 7.21, 7.59, 8.66, 10.35, 3.11, -2.68, -2.24, 1.26, 4.65, 6.14, 6.97, 7.12, 5.99, 3.76, 2.76, 2.15, 0.0, 3.11, 4.55, 3.69, 0.89, -0.63, -1.79, -1.2, 0.89, 3.13, 4.02, 3.58, 3.97, 3.97, -2.93, -2.93, -2.93, -2.93, -2.93, -2.39, -2.39, -2.25, -2.25, -1.71, -1.73, -1.73, -1.11, -1.11, -0.56, -0.59, -0.55, -0.58, -0.58, -0.55, -0.56, -0.59, -0.56, -0.56, -0.59, -0.56, -0.61, -0.57, -0.57, -0.57, -0.58, -0.58, -0.56, 0.0, 0.0, 0.0, 0.0, 0.0, 0.0, 0.0, 0.0, 0.0, 0.0, 0.0, 0.0, 0.0, 0.0, 0.0, 0.0, 0.0, 0.0, 1.14, 3.22, 4.43, 4.77, 4.47, 4.92, 6.61, 7.81, 6.4, 4.66, 5.2, 6.36, 7.2, 6.61, 7.06, 6.94, 6.87, 6.32, 6.01, 4.71, 4.38, 4.62, 0.74, 1.24, 6.64, 9.23, 8.56, 7.79, 6.67, 6.2, 4.55, 2.41, 0.79, -0.73, -2.3, 0.76, 1.52, 0.8, 0.0, -0.89, 3.51, 4.92, 4.41, 4.87, 3.13, 3.07, 3.07, -2.39, -2.39, -2.39, -2.28, -2.28, -2.28, -2.39, -2.39, -2.39, -1.73, -1.73, -1.73, -1.11, -1.11, -0.56, -0.59, -0.58, -0.58, -0.58, -0.55, -0.59, -0.56, -0.56, 0.0, 0.0, 0.0, 0.0, 0.0, 0.0, 0.0, 0.0, 0.0, 0.0, 0.0, 0.0, 0.0, 0.0, 0.0, 0.0, 0.0, 0.0, 0.0, 0.0, 0.0, 0.0, 0.0, 0.0, 0.0, 0.0, 0.0, 0.0, 0.0, 2.12, 4.47, 5.75, 6.26, 5.81, 4.02, 2.53, 1.41, 2.48, 4.02, 4.8, 4.11, 3.72, 3.58, 5.64, 6.13, 6.64, 5.72, 4.32, 2.18, 2.35, 4.58, 7.64, 10.29, 11.06, 11.08, 8.99, 7.01, 7.01, 6.09, 4.01, 1.33, -0.63, -2.24, -1.4, 0.0, 0.63, 0.6, 2.12, 2.6, 3.07, 3.53, 3.74, 3.07, 3.07, 3.07, -2.25, -2.25, -2.39, -2.39, -2.39, -2.39, -2.28, -2.28, -2.28, -2.28, -1.73, -1.65, -1.11, -1.11, -0.59, -0.59, -0.55, -0.58, 0.0, 0.0, 0.0, 0.0, 0.0, 0.0, 0.0, 0.0, 0.0, 0.0, 0.0, 0.0, 0.0, 0.0, 0.0, 0.0, 0.0, 0.0, 0.0, 0.0, 0.0, 0.0, 0.0, 0.0, 0.0, 0.0, 0.0, 0.0, 0.0, 0.0, 0.0, 0.0, 0.0, 0.0, 1.03, 3.22, 5.81, 6.71, 5.36, 3.13, 0.0, 0.0, 2.53, 4.47, 4.77, 3.72, 2.84, 2.97, 4.02, 5.2, 5.03, 4.4, 3.29, 3.1, 3.13, 5.2, 6.64, 7.64, 8.84, 9.31, 8.96, 7.93, 7.01, 6.2, 5.29, 0.0, -1.86, -2.12, -1.2, 0.0, 1.34, 2.4, 2.5, 2.6, 2.17, 3.13, 4.41, 3.32, 4.24, 4.24, -2.77, -2.25, -2.25, -2.25, -2.39, -2.39, -2.39, -2.28, -2.28, -2.28, -1.73, -1.65, -1.18, -1.11, -1.11, -0.77, -0.56, -0.59, 0.0, 0.0, 0.0, 0.0, 0.0, 0.0, 0.0, 0.0, 0.0, 0.0, 0.0, 0.0, 0.0, 0.0, 0.0, 0.0, 0.0, -0.55, -0.59, -0.59, 0.0, 0.0, 0.0, 0.0, 0.0, 0.0, 0.0, 0.0, 0.0, 0.0, 0.0, 0.0, 0.0, 1.03, 2.12, 3.45, 6.36, 6.61, 5.7, 4.24, 2.84, 2.84, 3.82, 4.92, 4.77, 3.6, 3.6, 3.95, 4.02, 3.93, 2.47, 2.17, 2.37, 3.13, 4.04, 4.76, 3.78, 1.55, 0.75, 2.39, 3.95, 4.66, 3.82, 3.82, 3.78, 0.61, -0.89, -1.7, -1.2, 0.0, 0.63, 1.79, 2.5, 2.21, 2.24, 3.07, 3.97, 4.24, 3.32, 3.32, -2.77, -2.77, -2.77, -2.77, -2.25, -2.25, -2.39, -2.39, -2.39, -1.73, -1.73, -1.65, -1.75, -1.73, -1.73, -1.16, -1.16, -0.56, 0.0, 0.0, 0.0, 0.0, 0.0, 0.0, 0.0, 0.0, 0.0, 0.0, -0.57, -0.56, -0.56, -0.56, -0.56, 0.0, 0.0, 0.0, -0.57, -0.57, 0.0, 0.0, 0.0, 0.0, 0.0, 0.0, 0.0, 0.0, 0.0, 0.0, 0.0, 0.0, 0.0, 1.03, 2.12, 5.59, 5.34, 5.09, 5.81, 3.74, 3.2, 3.72, 4.02, 4.34, 4.77, 5.2, 4.38, 3.95, 3.58, 3.48, 1.52, 0.85, 0.8, 1.54, 1.61, 0.76, 0.0, -2.31, -4.71, -4.6, -0.74, 0.74, 2.34, 3.76, 4.68, 3.78, 1.6, -0.57, -0.89, 0.0, -0.0, -0.0, 0.0, 1.61, 2.68, 2.91, 3.58, 3.74, 3.45, 3.45, -3.42, -2.9, -2.77, -2.77, -2.77, -2.77, -2.25, -2.39, -2.39, -1.73, -1.73, -1.73, -1.73, -1.73, -1.73, -1.73, -1.16, -1.16, -0.56, 0.0, 0.0, 0.0, 0.0, 0.0, 0.0, 0.0, 0.0, -0.56, -0.59, -0.59, -0.59, -0.59, 0.0, 0.0, 0.0, 0.0, 0.0, 0.0, 0.0, 0.0, 0.0, 0.0, 0.0, 0.0, 0.0, 0.0, 0.0, 0.0, 0.0, 0.0, 0.0, 1.1, 4.47, 6.32, 6.8, 4.8, 4.22, 3.49, 3.48, 3.82, 4.24, 4.77, 4.77, 4.77, 3.95, 2.54, 1.34, 3.16, 3.2, 2.44, 1.56, 3.1, 2.32, -1.6, -3.95, -5.52, -8.86, -7.97, -5.49, -2.18, 1.6, 6.09, 7.93, 7.69, 7.01, 2.9, 0.65, 0.57, 0.0, -0.6, -0.63, 0.95, 2.68, 2.4, 2.6, 3.07, 3.07, 3.07, -3.42, -3.42, -3.42, -2.77, -2.77, -2.77, -2.77, -2.39, -2.39, -1.73, -1.73, -1.73, -1.73, -2.28, -1.73, -1.73, -1.73, -1.16, -1.1, -0.58, 0.0, 0.0, 0.0, 0.0, 0.0, 0.0, 0.0, 0.0, 0.0, 0.0, 0.0, 0.0, 0.0, 0.0, 0.0, 0.0, 0.0, 0.0, 0.0, 0.0, 0.0, 0.0, 0.0, 0.0, 0.0, 0.0, 0.0, 0.0, 0.0, 0.0, 1.1, 3.2, 5.37, 6.32, 6.8, 6.32, 4.81, 4.81, 4.09, 2.8, 3.22, 3.74, 4.41, 4.38, 3.95, 2.24, 1.79, 3.6, 4.81, 6.87, 7.27, 8.94, 9.54, 0.0, -3.74, -5.6, -8.25, -8.76, -7.56, -2.5, 1.33, 6.79, 8.36, 8.86, 8.51, 7.48, 5.18, 2.8, 1.16, -0.99, -1.24, 0.0, 1.79, 2.0, 1.86, 2.24, 2.4, 2.4, -3.91, -3.91, -3.42, -3.42, -2.77, -2.77, -2.77, -2.39, -2.39, -2.25, -1.71, -1.71, -1.71, -1.71, -1.71, -1.73, -1.73, -1.16, -0.55, -0.58, 0.0, 0.0, 0.0, 0.0, 0.0, 0.0, 0.56, 0.56, 0.0, 0.0, 0.0, 0.0, 0.0, 0.58, 0.55, 0.59, 0.55, 0.55, 0.0, 0.0, 0.0, 0.0, 0.0, 0.0, 0.0, 0.0, 0.0, 0.0, 0.0, 0.0, 2.26, 4.46, 5.69, 5.93, 5.93, 5.93, 5.82, 6.44, 4.8, 1.6, 1.74, 4.15, 5.36, 5.36, 2.68, 2.24, 3.04, 3.47, 4.57, 6.4, 8.0, 9.17, 3.9, -2.4, -2.2, -2.68, -5.77, -7.57, -6.71, -2.6, 0.63, 3.11, 3.76, 4.61, 5.62, 6.4, 6.21, 4.6, 3.7, 2.07, -1.16, -0.71, 0.6, 1.86, 1.86, 1.79, 2.6, 2.6, -3.91, -3.91, -3.91, -3.42, -3.45, -2.77, -2.77, -2.25, -2.25, -2.25, -2.25, -2.25, -1.71, -1.71, -1.71, -1.71, -1.73, -1.16, -0.59, -0.58, 0.0, 0.0, 0.0, 0.0, 0.0, 0.56, 0.56, 1.12, 0.56, 0.56, 0.6, 0.57, 0.55, 0.58, 1.1, 1.15, 0.58, 0.58, 0.58, 0.58, 0.58, 0.55, 0.59, 0.56, 0.0, 0.0, 0.0, 0.0, 0.0, 2.21, 3.52, 4.44, 5.69, 5.93, 5.59, 5.93, 5.46, 6.7, 5.93, 3.2, 2.0, 4.15, 5.36, 3.13, 2.24, 3.95, 3.6, 4.24, 3.47, 3.6, 2.4, 3.28, 5.46, 0.65, -1.3, -2.48, -4.92, -6.71, -6.36, -3.45, -1.79, -1.33, -0.71, 0.0, 0.76, 2.25, 3.02, 3.88, 4.6, 7.08, -0.0, -1.84, -0.7, 1.2, 1.86, 2.68, 3.13, 3.13, -3.91, -3.91, -3.91, -3.61, -3.45, -2.93, -2.77, -2.25, -2.25, -2.25, -2.35, -2.35, -1.79, -1.69, -1.79, -1.15, -1.1, -0.59, -0.59, 0.0, 0.0, 0.0, 0.0, 0.0, 0.57, 0.6, 1.12, 1.12, 1.17, 1.17, 0.56, 0.6, 0.58, 0.58, 0.55, 0.58, 0.58, 0.58, 0.58, 0.58, 1.1, 1.16, 1.16, 1.16, 0.56, 0.0, 0.0, 0.59, 1.18, 2.28, 3.94, 5.45, 5.44, 5.69, 5.37, 5.93, 6.4, 5.43, 6.7, 5.93, 4.4, 4.02, 4.02, 3.47, 3.95, 3.95, 4.15, 4.15, 3.58, 0.0, 0.0, 0.8, 5.47, 6.17, 1.2, -1.49, -2.4, -2.68, -5.26, -3.45, -4.02, -4.66, -3.97, -2.75, -1.58, 0.0, 1.52, 3.69, 4.95, 7.61, 10.75, 0.95, -1.16, -0.0, 2.86, 3.58, 4.02, 4.02, -3.91, -3.91, -4.12, -3.45, -3.45, -2.93, -2.93, -2.77, -2.35, -2.35, -2.35, -2.23, -1.69, -1.69, -1.2, -1.15, -0.58, -0.55, 0.0, 0.0, 0.0, 0.0, 0.0, 0.0, 0.57, 0.6, 1.12, 1.12, 1.17, 1.11, 1.17, 0.56, 0.57, 0.58, 0.55, 0.58, 0.58, 0.58, 1.15, 1.16, 1.16, 1.16, 1.15, 1.15, 0.58, 0.59, 0.59, 1.11, 1.73, 3.45, 4.6, 5.98, 6.69, 6.64, 6.32, 5.69, 5.59, 5.75, 5.75, 6.7, 6.7, 5.01, 3.2, 3.47, 3.95, 4.38, 4.15, 4.22, 3.33, 2.51, 1.67, 2.28, 4.61, 7.95, 8.12, 1.16, -2.8, -2.6, -2.6, -3.32, -5.77, -5.77, -5.05, -3.48, -1.13, 0.76, 4.37, 6.24, 6.68, 6.98, 8.46, 9.09, 2.04, -0.6, 0.65, 3.07, 3.53, 3.53, -3.91, -3.91, -4.12, -3.45, -3.45, -3.45, -2.77, -2.9, -2.9, -2.35, -2.23, -2.23, -1.69, -1.69, -1.14, -1.15, -0.58, 0.0, 0.0, 0.0, 0.0, 0.0, 0.0, 0.0, 0.57, 0.57, 0.56, 1.12, 1.17, 1.11, 1.11, 0.59, 0.57, 0.58, 0.58, 0.58, 0.55, 0.55, 0.59, 0.56, 0.56, 0.56, 0.55, 1.15, 1.2, 1.15, 1.16, 1.73, 2.93, 4.12, 5.29, 6.35, 6.97, 6.95, 6.32, 5.77, 5.93, 5.75, 3.83, 4.84, 5.69, 5.37, 4.65, 4.15, 5.2, 4.38, 4.15, 3.07, 3.9, 4.12, 3.88, 3.16, 3.14, 4.66, 8.71, 8.51, 0.0, -2.91, -2.4, -2.49, -3.07, -3.13, -3.07, -1.86, 0.0, 2.73, 6.24, 8.6, 8.6, 7.59, 6.44, 6.95, 8.71, 2.35, 0.63, 1.7, 2.6, 2.6, -3.42, -3.42, -3.42, -3.45, -3.45, -3.45, -3.42, -3.42, -2.9, -2.35, -2.23, -1.69, -1.69, -1.14, -1.14, -0.58, -0.58, 0.0, 0.0, 0.0, 0.0, 0.0, 0.0, 0.0, 0.0, 0.57, 0.6, 0.56, 0.56, 0.58, 0.58, 0.59, 0.56, 0.57, 0.0, 0.0, 0.0, 0.0, 0.56, 0.56, 0.59, 0.56, 0.59, 1.16, 1.73, 2.25, 2.25, 2.39, 3.45, 4.6, 5.7, 6.98, 7.59, 7.27, 6.95, 6.39, 6.52, 5.59, 3.84, 4.84, 5.06, 4.95, 4.81, 5.59, 5.29, 5.2, 3.22, 0.99, 0.79, 2.51, 3.11, 2.44, 1.54, 0.0, 2.37, 5.42, 4.75, -0.61, -2.4, -1.49, -0.89, -0.8, 0.0, 0.76, 2.2, 4.36, 6.01, 7.27, 7.73, 7.24, 6.2, 5.48, 9.42, 7.8, 3.7, 1.58, 1.86, 1.86, -3.57, -3.57, -3.42, -3.61, -3.45, -3.61, -3.42, -3.42, -2.9, -2.9, -2.23, -2.23, -1.69, -1.14, -1.14, -0.58, 0.0, 0.0, 0.0, 0.0, 0.0, 0.0, 0.0, 0.0, 0.0, 0.0, 0.56, 0.56, 0.56, 0.58, 0.58, 0.56, 0.56, 0.57, 0.0, 0.0, 0.0, 0.0, 0.0, 0.0, 0.0, 0.0, 0.56, 0.8, 1.49, 2.3, 2.28, 3.3, 4.63, 5.29, 6.63, 7.3, 7.59, 7.27, 7.27, 6.92, 6.64, 6.87, 4.81, 4.81, 5.06, 4.65, 5.43, 6.02, 5.09, 4.8, 4.84, 0.6, -1.7, -1.66, 0.0, 2.28, 2.22, -0.75, -4.6, -3.04, 1.58, 2.32, 0.0, -1.34, 0.0, 2.0, 3.6, 4.16, 3.51, 3.69, 4.29, 4.71, 4.8, 5.51, 5.2, 5.48, 5.48, 8.0, 7.08, 4.2, 2.07, 2.07, -3.42, -3.42, -3.42, -2.9, -3.42, -3.42, -3.42, -2.9, -2.9, -2.9, -2.9, -2.35, -1.69, -1.14, -1.14, -0.55, -0.57, 0.0, 0.0, 0.0, 0.0, 0.0, 0.56, 0.56, 0.56, 0.56, 0.0, 0.0, 0.56, 0.56, 0.56, 0.56, 0.59, 0.56, 0.0, 0.0, 0.0, 0.0, 0.0, 0.0, 0.0, 0.0, 0.0, 0.56, 1.18, 1.52, 2.18, 4.0, 5.7, 6.7, 7.6, 7.6, 7.6, 7.59, 7.59, 7.27, 6.64, 6.92, 6.44, 4.74, 5.06, 5.43, 5.43, 5.09, 4.38, 5.75, 7.35, 5.93, -0.57, -3.6, -1.83, 2.35, 5.35, 3.04, -3.88, -8.68, -5.41, 0.0, 0.75, 0.0, 0.0, 0.61, 2.5, 3.57, 3.53, 2.83, 2.75, 2.06, 2.7, 2.88, 3.47, 3.87, 4.24, 6.14, 6.24, 5.6, 4.07, 4.07, -2.9, -2.9, -2.9, -2.9, -2.9, -2.9, -2.87, -2.87, -2.87, -2.87, -2.87, -2.9, -1.71, -1.15, -1.15, -0.55, -0.57, -0.6, 0.0, 0.0, 0.0, 0.6, 0.56, 0.59, 0.59, 0.59, 0.0, 0.59, 0.59, 0.59, 0.59, 0.59, 0.56, 0.56, 0.0, 0.0, 0.0, 0.0, 0.0, 0.0, 0.0, 0.0, 0.0, 0.59, 1.11, 1.6, 3.06, 4.42, 5.7, 6.98, 6.98, 7.59, 7.59, 8.19, 8.19, 7.59, 7.55, 7.51, 7.21, 6.06, 5.43, 5.43, 5.21, 3.74, 3.58, 4.38, 5.81, 7.44, 5.72, 1.19, 0.0, 2.6, 4.93, 7.11, 1.54, -6.79, -8.63, -5.21, -1.58, 0.0, 0.0, 0.0, 0.58, 1.75, 2.42, 2.93, 2.37, 2.1, 1.36, 1.36, 1.42, 2.06, 2.87, 4.04, 5.48, 5.8, 4.96, 4.96, -2.9, -2.9, -2.9, -2.9, -2.75, -2.87, -2.87, -2.99, -2.84, -2.87, -2.87, -2.35, -2.25, -1.15, -0.58, -0.57, -0.57, -0.56, 0.0, 0.0, 0.57, 0.56, 0.59, 0.0, 0.0, 0.0, 0.56, 0.56, 0.0, 0.57, 0.57, 0.56, 0.56, 0.0, 0.0, 0.0, 0.0, 0.0, 0.0, 0.0, 0.0, 0.0, 0.0, 0.56, 1.73, 2.25, 3.91, 5.26, 6.34, 6.63, 6.97, 7.27, 7.59, 7.59, 8.19, 8.19, 8.15, 7.55, 7.51, 7.21, 6.39, 5.46, 3.83, 3.32, 3.13, 3.04, 2.97, 4.09, 5.72, 5.98, 3.33, 2.47, 2.28, 4.49, 5.46, -1.61, -7.71, -6.98, -4.83, -2.17, 0.0, 0.0, 0.0, 0.61, 1.79, 2.34, 2.4, 2.4, 0.76, 0.72, 0.71, 1.4, 2.11, 3.39, 4.86, 4.92, 4.2, 4.2, -2.75, -2.75, -2.75, -2.87, -2.87, -2.87, -2.84, -2.84, -2.84, -2.87, -2.23, -2.35, -1.71, -1.15, -0.57, -0.57, -0.6, 0.0, 0.0, 0.0, 0.0, 0.0, 0.0, 0.0, 0.0, 0.0, 0.56, 0.59, 0.56, 0.0, 0.0, 0.0, 0.0, 0.0, 0.0, 0.0, 0.0, 0.0, 0.0, 0.0, 0.0, 0.0, 0.56, 1.16, 2.39, 3.42, 4.57, 5.92, 6.61, 6.98, 7.28, 7.27, 7.55, 7.88, 7.59, 7.86, 8.15, 8.15, 7.85, 7.51, 7.44, 4.84, 5.37, 3.83, 3.74, 3.51, 2.68, 2.0, 2.6, 3.7, 4.0, 1.65, 0.0, 0.0, 3.16, 1.55, -2.8, -5.81, -4.66, -3.38, -0.7, 0.0, 0.0, 0.0, 1.18, 1.72, 2.43, 2.34, 1.54, 0.72, 1.55, 1.55, 2.2, 2.82, 3.61, 4.8, 4.07, 4.07, -2.87, -2.87, -2.87, -2.87, -2.99, -2.84, -2.84, -2.84, -2.84, -2.33, -2.23, -1.71, -1.15, -1.15, -0.57, -0.57, -0.56, 0.0, 0.0, 0.0, 0.0, 0.0, 0.0, 0.0, 0.0, 0.0, 0.56, 0.59, 0.56, 0.0, 0.0, 0.0, 0.0, 0.0, 0.0, 0.0, 0.0, 0.0, 0.0, 0.0, 0.0, 0.0, 1.16, 1.73, 2.25, 3.42, 5.04, 5.69, 6.98, 7.6, 7.59, 7.86, 8.15, 8.15, 7.88, 7.88, 7.88, 7.81, 7.81, 8.08, 8.0, 6.32, 5.75, 5.37, 4.22, 4.22, 3.58, 2.41, 2.4, 2.21, 3.7, 2.28, 0.0, -0.75, 0.77, 3.23, 0.0, -2.68, -4.87, -3.32, -0.95, 0.0, 0.0, 0.0, 0.0, 1.16, 1.79, 1.73, 1.35, 1.4, 1.86, 2.23, 2.07, 2.04, 2.82, 4.12, 4.28, 4.28, -2.87, -2.87, -2.87, -2.99, -2.84, -2.84, -2.84, -2.84, -2.87, -2.33, -1.69, -1.71, -1.2, -1.14, -1.14, -0.56, -0.56, 0.0, 0.0, 0.0, 0.0, 0.0, 0.0, 0.0, 0.0, 0.56, 0.56, 0.56, 0.56, 0.0, 0.0, 0.0, 0.0, 0.0, 0.0, 0.0, 0.0, 0.0, 0.0, 0.0, 0.0, 0.59, 1.16, 1.71, 2.77, 3.94, 4.84, 5.7, 6.34, 6.98, 7.86, 8.15, 8.15, 7.86, 7.86, 7.88, 7.55, 7.55, 7.85, 7.8, 7.44, 7.28, 5.59, 5.37, 5.37, 4.65, 3.16, 2.3, 1.7, 2.4, 2.83, 3.39, 2.28, 0.81, 0.79, 3.11, 2.9, 0.0, -1.86, -1.79, -0.89, 0.0, -0.6, -0.65, 0.0, 0.0, 1.18, 1.33, 1.2, 1.86, 2.0, 1.86, 1.74, 1.35, 1.41, 2.06, 3.51, 3.51, -2.87, -2.87, -2.99, -2.84, -2.84, -2.96, -2.84, -2.84, -2.33, -2.23, -1.69, -1.69, -1.69, -1.14, -1.14, -0.6, 0.0, 0.0, 0.0, 0.0, 0.0, 0.0, 0.0, 0.0, 0.0, 0.56, 0.56, 0.56, 0.0, 0.0, 0.0, 0.0, 0.0, 0.0, 0.0, 0.0, 0.0, -0.59, -0.55, 0.0, 0.0, 0.55, 1.15, 1.71, 2.93, 4.16, 4.63, 5.06, 5.72, 6.67, 7.55, 8.15, 8.15, 8.15, 7.86, 7.88, 7.55, 7.85, 7.51, 7.44, 7.44, 6.87, 5.93, 2.86, 2.8, 3.16, 1.24, 1.2, 0.76, 0.78, 2.33, 3.21, 4.43, 3.91, 3.14, 1.67, 3.2, 3.95, 0.77, -0.65, -0.89, -0.89, -1.6, -1.24, -0.53, 0.0, 0.54, 0.99, 1.26, 1.86, 1.86, 1.58, 0.85, 0.73, 0.69, 0.71, 2.12, 2.12, -2.84, -2.84, -2.84, -2.84, -2.84, -2.96, -2.84, -2.3, -2.33, -1.69, -1.69, -1.69, -1.76, -1.18, -1.18, -0.56, 0.0, 0.0, 0.0, 0.0, 0.0, 0.0, 0.0, 0.58, 0.58, 0.58, 0.58, 0.0, 0.0, 0.0, 0.0, 0.0, 0.0, 0.0, 0.0, 0.0, -0.55, -0.55, -0.58, -0.58, 0.0, 0.0, 1.15, 1.54, 2.83, 3.49, 4.16, 4.63, 5.08, 6.34, 6.95, 7.23, 7.55, 7.55, 7.55, 7.55, 7.55, 7.51, 7.17, 7.21, 7.21, 6.87, 5.37, 2.86, 2.5, 3.48, 1.49, 1.2, 0.7, 0.89, 2.4, 3.88, 4.48, 6.37, 5.62, 1.45, -0.65, 0.74, 2.33, 0.64, 0.0, -0.45, -0.63, 0.0, 0.0, 1.2, 1.0, 1.24, 1.24, 1.0, 1.0, 0.65, 0.0, 0.0, 0.0, 0.0, 0.0, 0.67, -2.84, -2.84, -2.84, -2.84, -2.96, -2.96, -2.3, -2.21, -2.33, -1.76, -1.76, -1.67, -1.12, -1.12, -0.56, -0.56, 0.0, 0.0, 0.0, 0.56, 0.59, 0.56, 0.0, 0.0, 0.0, 0.0, 0.0, 0.0, 0.0, 0.0, 0.0, 0.0, 0.0, 0.0, 0.0, 0.0, -0.58, -1.15, -1.15, -0.58, 0.0, 0.0, 1.14, 2.31, 2.8, 3.3, 3.97, 4.66, 6.0, 6.65, 6.64, 6.64, 6.64, 6.95, 6.95, 7.23, 7.23, 7.51, 6.92, 6.92, 6.59, 6.62, 5.69, 2.86, 2.86, 3.22, 3.49, 2.4, 2.4, 2.2, 3.0, 4.44, 5.64, 6.09, 7.15, 4.01, -4.0, -5.43, -0.69, 1.88, 1.7, 1.34, 1.27, 1.86, 2.86, 2.98, 2.0, 0.7, 0.61, 0.53, 0.0, 0.0, -0.61, -0.82, -0.79, -0.71, -1.43, 0.0, -2.84, -2.84, -2.96, -2.96, -2.82, -2.28, -2.3, -2.3, -2.21, -1.67, -1.67, -1.12, -1.12, -1.12, -0.56, -0.56, 0.0, 0.0, 0.0, 0.59, 0.0, 0.0, 0.0, 0.0, 0.0, 0.0, 0.0, 0.0, 0.0, 0.0, 0.0, 0.0, 0.0, 0.0, 0.0, 0.0, -0.57, -0.57, -1.14, -0.57, 0.0, 0.56, 1.76, 2.87, 3.85, 3.49, 3.97, 5.08, 5.72, 6.35, 6.34, 6.34, 6.32, 6.64, 6.92, 6.64, 6.95, 6.92, 6.92, 6.32, 6.32, 6.32, 5.08, 5.37, 4.74, 3.76, 2.41, 2.2, 2.64, 3.33, 3.33, 4.26, 5.69, 6.9, 7.84, 8.61, -0.76, -7.45, -2.4, 2.0, 3.13, 2.63, 3.04, 3.74, 4.12, 4.14, 3.44, 1.45, 0.0, 0.0, 0.0, -0.61, -1.49, -1.55, -1.67, -2.35, -2.11, -1.43, -2.84, -2.84, -2.96, -2.96, -2.28, -2.28, -2.3, -2.3, -1.74, -1.74, -1.17, -1.17, -1.17, -0.59, -0.59, -0.56, 0.0, 0.0, 0.0, 0.0, 0.0, 0.0, 0.0, 0.0, 0.0, 0.0, 0.0, 0.0, 0.0, 0.0, 0.0, 0.0, 0.0, 0.0, 0.0, 0.0, 0.0, 0.0, 0.0, 0.0, 0.0, 1.17, 1.67, 2.87, 3.57, 3.85, 4.63, 5.32, 5.72, 6.0, 5.72, 5.72, 5.72, 5.71, 6.32, 6.32, 6.64, 6.64, 6.32, 6.32, 6.01, 6.01, 5.72, 4.75, 4.47, 4.47, 1.4, 3.45, 3.22, 3.9, 4.65, 4.83, 4.66, 6.45, 8.2, 11.17, 7.01, -0.63, -1.55, 0.79, 2.68, 3.07, 2.5, 2.86, 2.48, 2.72, 2.12, 0.71, 0.0, 0.0, -0.66, -1.41, -2.11, -3.27, -2.35, -3.21, -3.06, -3.06, -2.96, -2.96, -2.96, -2.96, -2.28, -2.28, -2.3, -1.74, -1.74, -1.74, -1.17, -1.17, -1.17, -0.59, -0.59, -0.59, 0.0, 0.0, 0.0, 0.0, 0.0, 0.0, 0.0, 0.0, 0.0, 0.0, 0.0, 0.0, 0.0, 0.0, 0.0, 0.0, 0.0, 0.0, 0.0, 0.0, 0.0, 0.0, 0.0, 0.0, 1.11, 1.72, 2.3, 2.87, 3.89, 4.57, 5.26, 5.29, 5.72, 5.32, 5.34, 5.34, 5.36, 5.71, 5.71, 6.01, 6.32, 6.32, 6.01, 5.71, 5.71, 5.38, 5.38, 4.22, 4.47, 4.47, 4.75, 3.45, 4.11, 4.74, 4.95, 4.83, 4.66, 5.52, 7.96, 9.91, 11.28, 7.91, 1.16, -0.0, -0.0, 1.24, 1.88, 1.2, 0.76, 0.7, 0.74, 0.0, -0.63, -1.27, -1.6, -2.2, -2.8, -3.09, -3.32, -2.99, -2.99, -2.99, -2.84, -2.84, -2.39, -2.39, -2.28, -2.28, -1.72, -1.74, -1.74, -1.17, -1.17, -1.17, -1.17, -0.56, -0.59, -0.59, 0.0, 0.0, 0.0, 0.0, 0.0, 0.0, 0.0, 0.0, 0.0, 0.0, 0.0, 0.0, 0.0, 0.0, 0.0, 0.0, 0.0, 0.0, 0.0, 0.0, 0.0, 0.0, 0.0, 0.56, 1.16, 1.72, 2.82, 3.37, 4.05, 4.57, 5.26, 5.29, 5.29, 5.32, 5.08, 5.34, 5.36, 5.71, 5.71, 5.71, 5.71, 5.71, 5.71, 5.38, 5.38, 5.38, 5.38, 5.44, 4.75, 4.75, 5.69, 4.47, 4.46, 4.74, 4.16, 4.03, 5.49, 6.31, 6.87, 7.69, 8.51, 11.39, 9.54, 3.47, -0.45, -1.34, 0.0, 0.0, 0.0, 0.0, 0.0, -0.69, -2.0, -2.2, -2.29, -3.0, -3.0, -3.09, -3.2, -2.4, -2.4, -2.4, -2.84, -2.84, -2.3, -2.28, -2.28, -1.72, -1.72, -1.66, -1.74, -1.17, -1.17, -1.17, -1.11, -1.11, -0.59, -0.59, 0.0, 0.0, 0.0, 0.0, 0.0, 0.0, 0.0, 0.0, 0.0, 0.0, 0.0, 0.0, 0.0, 0.0, 0.0, 0.0, 0.0, 0.0, 0.0, -0.56, -0.56, -0.56, 0.0, 0.0, 1.16, 1.72, 2.28, 3.5, 4.05, 5.23, 5.92, 5.69, 5.7, 5.7, 5.32, 5.08, 5.34, 5.72, 5.71, 5.71, 5.71, 5.38, 5.38, 5.38, 5.38, 5.38, 5.71, 5.38, 5.72, 5.69, 5.69, 4.74, 4.81, 4.74, 4.75, 4.95, 6.32, 6.31, 6.09, 5.6, 6.28, 7.8, 10.59, 10.1, 4.46, -1.79, -2.23, -0.45, 0.0, 0.0, 0.0, -0.74, -2.2, -2.79, -3.4, -2.73, -2.98, -2.53, -0.85, -0.6, -0.6, -0.6, -2.3, -2.3, -2.39, -2.28, -2.28, -1.72, -1.72, -1.72, -1.66, -1.11, -1.11, -1.11, -1.11, -1.11, -0.59, -0.59, -0.59, -0.56, -0.56, -0.58, 0.0, 0.0, 0.0, 0.0, 0.0, 0.0, 0.0, 0.0, 0.0, -0.57, -0.57, -0.55, 0.0, 0.0, -0.56, -0.59, -0.59, -0.59, 0.0, 0.0, 0.58, 1.16, 2.28, 2.84, 4.05, 5.0, 5.23, 5.69, 5.7, 5.7, 5.06, 5.08, 5.34, 5.72, 5.71, 5.71, 5.38, 5.38, 5.38, 5.38, 5.71, 5.71, 6.01, 6.32, 6.01, 5.44, 5.37, 4.81, 5.06, 4.74, 4.65, 5.69, 5.49, 5.52, 5.0, 4.68, 6.43, 7.11, 9.67, 10.35, 10.32, 1.2, -2.51, -1.2, 0.0, 0.0, 0.0, -0.67, -2.11, -3.45, -2.2, -1.26, -1.2, -0.89, 0.0, 0.0, 0.0, 0.0, -2.28, -2.28, -2.28, -2.28, -2.28, -1.72, -1.72, -1.72, -1.66, -1.11, -1.11, -1.11, -1.11, -1.11, -0.59, -0.59, -0.56, -0.56, -0.56, -0.56, 0.0, 0.0, 0.0, 0.0, 0.0, 0.0, 0.0, -0.57, -0.57, -0.57, -0.57, -0.58, 0.0, 0.0, -0.59, -0.56, 0.0, 0.0, 0.0, 0.0, 0.58, 1.16, 2.28, 2.96, 3.86, 4.54, 4.76, 5.26, 5.29, 5.29, 5.06, 5.08, 5.09, 5.72, 5.71, 5.38, 5.38, 5.38, 5.38, 5.71, 5.71, 6.01, 6.01, 6.32, 6.59, 6.32, 5.37, 5.59, 5.37, 5.77, 5.77, 5.69, 4.96, 4.71, 5.52, 5.76, 6.33, 7.93, 9.54, 9.42, 10.23, 6.87, -0.95, -2.73, -1.79, -1.49, -1.4, -1.4, -1.33, -0.95, 0.0, -0.0, -0.0, -0.0, -0.0, -0.0, -0.0, -0.0, -2.28, -2.28, -2.28, -2.37, -2.28, -1.72, -1.72, -1.72, -1.72, -1.16, -1.16, -1.16, -1.11, -1.11, -1.11, -0.56, -0.56, -0.56, -0.56, -0.56, -0.56, 0.0, 0.0, 0.0, 0.0, -0.58, -0.58, -0.57, -0.57, -0.57, -0.57, -0.58, -0.59, -0.59, -0.59, 0.0, 0.0, 0.0, 0.0, 0.55, 1.16, 1.72, 2.28, 3.34, 4.02, 4.21, 4.54, 4.57, 4.6, 5.06, 5.32, 5.08, 5.09, 5.1, 5.38, 5.38, 5.38, 5.38, 5.38, 5.71, 6.01, 6.01, 6.32, 6.32, 6.87, 6.64, 6.01, 5.93, 5.93, 5.06, 4.16, 4.95, 4.71, 5.38, 6.42, 7.08, 6.97, 7.79, 9.12, 9.54, 9.55, 9.66, 3.64, -1.24, -2.17, -3.14, -2.73, -1.2, 0.32, 0.45, 0.6, -0.0, -0.0, -0.0, -0.0, -0.0, -0.0, -0.0, -2.37, -2.37, -2.37, -2.37, -2.28, -1.72, -1.72, -1.72, -1.16, -1.16, -1.16, -1.16, -1.16, -1.16, -1.11, -0.56, -0.59, -0.59, -0.59, -0.59, -0.59, -0.59, -0.56, -0.56, -0.58, -0.58, -0.58, -0.58, -0.57, -0.57, -0.58, -0.58, -0.56, -0.59, -0.56, -0.58, 0.0, 0.0, 0.0, 0.57, 1.16, 1.79, 2.93, 3.47, 4.02, 4.02, 4.05, 4.57, 5.04, 5.06, 5.72, 5.72, 5.72, 5.36, 5.38, 5.38, 5.38, 5.38, 5.71, 5.71, 6.01, 6.32, 6.32, 6.32, 6.62, 5.69, 5.69, 6.11, 5.43, 4.65, 4.29, 4.01, 5.69, 6.64, 7.27, 7.82, 7.44, 8.01, 8.56, 9.39, 9.55, 10.35, 9.28, 1.61, -1.2, -2.24, -0.0, 2.15, 3.13, 3.39, 2.4, 1.34, 0.89, 0.89, 0.45, 0.0, 0.0, 0.0, -2.37, -2.37, -2.37, -2.28, -1.72, -1.72, -1.72, -1.72, -1.16, -1.16, -1.16, -1.16, -1.16, -1.16, -0.56, -0.56, -0.59, -0.59, -0.59, -0.59, -0.59, -0.59, -0.59, -0.56, -0.58, -0.58, -0.58, -0.58, -0.55, -0.57, -0.58, -1.16, -1.11, -1.11, -0.58, -0.58, 0.0, 0.0, 0.0, 0.57, 1.14, 1.71, 2.93, 4.17, 4.02, 4.02, 4.72, 4.76, 5.26, 5.7, 5.98, 5.72, 6.0, 5.36, 5.1, 5.38, 5.71, 5.71, 6.01, 6.01, 6.32, 6.32, 6.32, 6.32, 6.32, 6.39, 6.44, 6.39, 6.39, 5.69, 5.77, 3.79, 2.79, 5.69, 7.02, 7.18, 8.12, 8.01, 8.18, 7.82, 8.62, 9.43, 9.43, 6.14, 0.0, -0.0, 2.15, 4.09, 5.32, 6.36, 5.72, 3.48, 2.21, 2.4, 1.7, 0.45, 0.45, 0.45, -2.37, -2.37, -2.28, -2.28, -1.72, -1.72, -1.72, -1.72, -1.16, -1.16, -1.16, -1.16, -1.16, -1.11, -0.56, -0.59, -0.59, -0.59, -0.59, -0.59, -0.59, -0.59, -0.59, -0.56, -0.56, -0.58, -1.16, -1.16, -1.16, -1.14, -1.2, -1.16, -1.16, -1.16, -0.58, -0.57, 0.0, 0.0, 0.0, 0.57, 1.14, 2.26, 3.47, 4.17, 4.02, 4.02, 4.72, 5.23, 5.69, 5.7, 6.35, 6.35, 6.08, 6.01, 5.72, 5.72, 6.01, 6.01, 6.01, 6.01, 6.01, 5.71, 6.01, 6.01, 6.32, 6.62, 6.44, 6.06, 7.06, 7.06, 7.41, 6.32, 4.65, 4.84, 5.43, 7.02, 7.9, 8.01, 7.01, 7.13, 7.11, 7.91, 7.88, 5.4, 0.71, 1.88, 2.86, 3.45, 4.3, 6.11, 6.96, 5.69, 3.79, 3.84, 2.84, 1.9, 1.9, 1.9, -2.28, -2.28, -2.28, -2.28, -1.72, -1.72, -1.72, -1.72, -1.16, -1.16, -1.16, -1.16, -1.11, -0.56, -0.59, -0.59, -0.59, -0.59, -0.59, -0.59, -0.59, -0.59, -1.17, -1.17, -1.11, -1.16, -1.16, -1.16, -1.16, -1.2, -1.2, -1.16, -1.16, -0.58, -0.58, -0.57, 0.0, 0.0, 0.0, 0.57, 1.71, 2.9, 3.47, 4.17, 4.02, 4.02, 4.54, 5.02, 5.95, 6.08, 6.35, 6.35, 6.35, 6.06, 6.01, 5.72, 5.72, 5.72, 6.01, 5.71, 5.71, 5.71, 5.71, 6.01, 6.32, 6.62, 6.06, 6.44, 7.07, 7.06, 7.06, 7.02, 7.41, 6.08, 5.82, 6.39, 6.88, 6.87, 6.43, 5.48, 6.2, 7.0, 7.11, 0.57, 1.2, 2.86, 2.91, 3.32, 3.97, 5.78, 7.32, 6.64, 4.43, 3.84, 3.72, 3.64, 3.64, 3.64, -2.3, -2.3, -2.28, -1.72, -1.72, -1.72, -1.72, -1.72, -1.11, -1.11, -1.11, -1.11, -1.11, -0.59, -0.59, -0.59, -0.59, -0.59, -0.56, -0.59, -0.59, -0.59, -1.17, -1.17, -1.11, -1.16, -1.16, -1.16, -1.16, -1.16, -1.16, -1.16, -1.16, -0.58, -0.55, 0.0, 0.0, 0.6, 1.19, 1.77, 2.34, 3.44, 3.99, 3.99, 4.02, 4.05, 4.57, 5.26, 5.7, 5.7, 5.98, 5.72, 6.0, 5.72, 6.01, 5.72, 5.72, 5.72, 5.1, 5.38, 5.38, 5.38, 5.71, 5.71, 6.01, 6.28, 6.28, 6.57, 6.44, 6.44, 6.06, 6.39, 6.68, 6.39, 5.77, 5.77, 6.53, 7.24, 6.9, 6.31, 6.31, 6.09, 6.97, 0.54, 1.33, 4.09, 5.32, 4.92, 4.92, 5.64, 6.96, 6.28, 4.11, 2.84, 3.72, 3.79, 3.79, 3.79, -2.3, -2.3, -2.3, -1.74, -1.66, -1.66, -1.66, -1.66, -1.74, -1.17, -1.17, -1.17, -1.17, -1.17, -0.59, -0.59, -0.59, -0.56, -0.56, -1.17, -1.17, -1.17, -1.17, -1.17, -1.17, -1.16, -1.16, -1.16, -1.16, -1.16, -1.16, -1.16, -1.16, -0.58, 0.0, 0.0, 0.0, 0.6, 1.77, 2.34, 2.9, 3.6, 4.13, 4.48, 4.68, 4.54, 4.57, 5.04, 5.29, 5.72, 5.72, 5.72, 5.72, 6.01, 5.72, 5.36, 5.36, 5.1, 5.1, 5.1, 5.38, 5.38, 5.38, 5.38, 5.71, 6.01, 6.01, 5.98, 5.77, 5.43, 5.77, 5.77, 5.24, 5.69, 4.95, 4.74, 5.89, 6.57, 6.9, 7.13, 6.31, 7.01, 8.8, 2.29, 0.7, 5.0, 7.45, 8.36, 6.64, 5.44, 5.36, 5.3, 3.43, 2.15, 2.2, 2.72, 2.72, 2.72, -2.3, -2.3, -2.3, -2.3, -1.74, -1.74, -1.74, -1.74, -1.74, -1.74, -1.17, -1.17, -1.17, -1.17, -1.12, -1.12, -1.12, -1.12, -1.17, -1.17, -1.17, -1.17, -1.17, -1.74, -1.74, -1.66, -1.16, -1.16, -1.16, -1.16, -1.16, -1.16, -0.58, -0.58, 0.0, 0.0, 0.57, 1.14, 1.77, 2.34, 3.44, 4.13, 3.99, 4.48, 4.68, 4.72, 4.57, 5.04, 5.06, 5.32, 5.32, 5.08, 5.09, 5.36, 5.36, 5.36, 5.1, 5.1, 5.1, 5.1, 5.1, 4.71, 4.73, 5.1, 5.1, 5.1, 5.38, 5.08, 5.37, 5.06, 4.74, 4.16, 4.16, 4.95, 4.95, 3.9, 3.33, 4.83, 5.4, 6.31, 7.13, 7.2, 8.68, 6.42, 0.45, 4.5, 7.46, 9.15, 8.11, 5.36, 3.48, 4.07, 3.32, 1.49, 0.7, 1.52, 1.52, 1.52, -2.3, -2.3, -2.3, -2.3, -2.3, -1.74, -1.74, -1.74, -1.74, -1.74, -1.74, -1.17, -1.17, -1.12, -1.12, -1.12, -1.12, -1.17, -1.17, -1.17, -1.74, -1.74, -1.74, -1.74, -1.74, -1.74, -1.72, -1.72, -1.16, -1.16, -1.2, -1.16, -0.58, -0.58, 0.0, 0.0, 0.58, 1.14, 1.71, 2.26, 2.93, 3.47, 3.99, 4.17, 4.68, 4.72, 5.02, 5.04, 5.06, 5.32, 5.32, 5.09, 5.09, 5.09, 5.36, 4.71, 4.71, 4.71, 4.71, 4.71, 4.71, 4.46, 4.46, 4.73, 4.73, 4.47, 4.75, 4.75, 5.06, 4.74, 4.29, 3.9, 4.16, 4.95, 4.83, 4.26, 3.2, 3.27, 4.6, 6.33, 6.4, 6.35, 6.52, 8.14, 2.35, 2.73, 6.98, 8.46, 8.23, 6.64, 4.07, 3.32, 3.4, 2.2, 0.0, 0.0, 0.0, 0.0, -2.3, -2.3, -2.3, -2.3, -2.3, -2.3, -1.74, -1.74, -1.74, -1.74, -1.74, -1.17, -1.12, -1.12, -1.12, -1.12, -1.17, -1.17, -1.74, -1.74, -1.74, -1.74, -1.74, -1.74, -1.74, -1.74, -1.66, -1.72, -1.72, -1.16, -1.14, -1.16, -0.58, -0.58, 0.0, 0.0, 0.0, 0.57, 1.14, 1.72, 2.28, 2.82, 3.5, 4.02, 4.72, 4.54, 5.02, 5.04, 5.06, 5.32, 5.08, 5.09, 5.09, 4.69, 4.69, 4.45, 4.45, 4.45, 4.45, 4.03, 4.03, 4.05, 4.05, 4.05, 4.08, 4.08, 4.36, 4.1, 4.12, 4.29, 3.9, 4.16, 4.65, 4.65, 4.83, 5.21, 4.71, 4.26, 4.6, 5.6, 5.38, 5.35, 5.46, 6.5, 5.61, 3.07, 6.01, 7.12, 8.55, 7.85, 5.78, 3.6, 2.9, 1.49, 0.0, 0.0, 0.0, 0.0, -2.3, -2.3, -2.3, -2.3, -2.3, -2.3, -2.3, -1.74, -1.74, -1.74, -1.74, -1.67, -1.67, -1.12, -1.12, -1.17, -1.74, -1.74, -1.74, -1.74, -1.74, -1.74, -1.74, -1.74, -1.74, -1.74, -1.74, -1.72, -1.72, -1.16, -1.14, -1.14, -0.58, -0.58, -0.58, 0.0, 0.0, 0.0, 0.55, 0.58, 1.74, 2.84, 3.37, 4.05, 4.05, 4.57, 4.8, 5.29, 4.63, 4.88, 4.66, 4.69, 4.69, 4.69, 4.69, 4.45, 4.03, 4.03, 4.03, 4.03, 3.56, 3.37, 3.6, 3.4, 3.4, 3.64, 3.42, 3.45, 3.45, 3.47, 3.72, 3.9, 3.9, 3.9, 4.95, 5.1, 4.96, 4.0, 3.7, 4.87, 5.29, 5.45, 5.56, 6.31, 7.84, 5.3, 3.83, 5.77, 7.59, 8.15, 6.7, 4.87, 2.83, 0.79, 0.0, -1.41, -1.41, -1.41, -2.3, -2.3, -2.3, -2.3, -2.3, -2.3, -2.3, -2.3, -1.74, -1.74, -1.67, -1.67, -1.67, -1.67, -1.74, -1.74, -1.74, -1.74, -1.74, -1.74, -1.74, -1.74, -1.74, -1.74, -1.74, -1.74, -1.74, -1.72, -1.72, -1.16, -1.14, -0.57, -0.57, -0.57, -0.55, -0.57, 0.0, 0.0, 0.0, 0.58, 1.74, 2.33, 3.39, 3.39, 4.08, 4.12, 4.4, 4.63, 4.63, 4.66, 4.44, 4.44, 4.0, 4.24, 4.24, 4.03, 4.03, 3.8, 3.35, 3.35, 3.56, 3.56, 3.37, 3.6, 3.4, 3.64, 3.42, 3.45, 3.45, 3.22, 3.47, 3.33, 3.9, 4.75, 3.9, 4.03, 4.12, 3.8, 4.6, 4.83, 5.4, 5.55, 6.35, 7.22, 8.87, 7.69, 3.51, 4.02, 6.96, 8.44, 7.85, 6.44, 4.31, 1.32, -0.66, -2.0, -2.0, -2.0, -2.3, -2.3, -2.3, -2.3, -2.3, -2.3, -2.3, -2.3, -2.3, -1.74, -1.67, -1.67, -1.67, -1.67, -1.74, -1.74, -1.74, -1.74, -1.74, -1.74, -1.74, -1.74, -1.74, -1.74, -1.74, -1.74, -1.74, -1.72, -1.72, -1.16, -0.57, -0.57, -0.57, 0.0, 0.0, 0.0, 0.0, 0.0, 0.0, 1.16, 1.74, 2.33, 2.87, 3.42, 3.42, 3.45, 3.45, 3.97, 3.97, 4.2, 4.0, 4.0, 4.0, 4.0, 4.0, 4.0, 3.52, 3.52, 3.52, 3.35, 3.35, 3.05, 2.89, 2.89, 3.4, 3.4, 3.42, 2.96, 3.0, 2.8, 2.8, 3.0, 3.45, 4.22, 3.9, 3.79, 3.91, 4.71, 4.96, 4.83, 4.8, 5.48, 6.28, 7.27, 9.54, 10.21, 7.64, 5.34, 6.44, 8.16, 8.72, 7.58, 6.36, 3.44, -0.7, -2.84, -2.84, -2.84, -2.3, -2.3, -2.3, -2.3, -2.3, -2.3, -2.3, -2.3, -2.3, -1.74, -1.67, -1.67, -1.67, -1.67, -1.74, -1.74, -1.74, -1.74, -1.74, -1.74, -1.74, -1.74, -1.74, -1.74, -1.74, -1.74, -1.74, -1.72, -1.72, -1.16, -0.57, -0.57, -0.57, 0.0, 0.0, 0.0, 0.0, 0.0, 0.0, 1.16, 1.74, 2.33, 2.87, 3.42, 3.42, 3.45, 3.45, 3.97, 3.97, 4.2, 4.0, 4.0, 4.0, 4.0, 4.0, 4.0, 3.52, 3.52, 3.52, 3.35, 3.35, 3.05, 2.89, 2.89, 3.4, 3.4, 3.42, 2.96, 3.0, 2.8, 2.8, 3.0, 3.45, 4.22, 3.9, 3.79, 4.71, 4.71, 4.96, 4.83, 4.8, 5.4, 6.31, 7.11, 9.31, 10.98, 10.12, 8.03, 7.06, 7.9, 9.31, 9.66, 8.74, 7.01, 0.66, -2.8, -2.8, -2.8]}]